FIN62 RJTT-EFHK

Flight info

Callsign FIN62
Flight time N/A
Altitude 35000
Route INUBO Y808 PUTER A590 POWAL DCT OPAKE DCT NATES R338 MORLY/N0489F370 R338 MARCC DCT JUJXI DCT OMEKA/N0497F390 DCT 81N120W 82N100W 82N080W 82N060W/M085F390 82N040W 81N020W 78N000W/N0499F390 DCT KOMUX/N0502F410 DCT GITEV Y86 LUSEP
Aircraft A359/H-SDE2E3GHIJ3J4J5LM1ORWXY/LB1D1

Departure

Time 2026-05-04 17:52
Airport Tokyo Haneda International Airport (RJTT)

Arrival

Time N/A
Airport Helsinki Vantaa Airport (EFHK)
Time Latitude Longitude Altitude Speed Heading
2026-05-04 16:04 35.54834 139.76577 29 ft 0 kts 149°
2026-05-04 17:36 35.54850 139.76564 27 ft 4 kts 137°
2026-05-04 17:36 35.54865 139.76539 27 ft 4 kts 102°
2026-05-04 17:36 35.54864 139.76508 26 ft 4 kts 67°
2026-05-04 17:37 35.54852 139.76480 28 ft 2 kts 62°
2026-05-04 17:37 35.54851 139.76477 28 ft 0 kts 62°
2026-05-04 17:41 35.54857 139.76493 29 ft 6 kts 62°
2026-05-04 17:41 35.54885 139.76554 29 ft 10 kts 57°
2026-05-04 17:42 35.54927 139.76637 41 ft 13 kts 61°
2026-05-04 17:42 35.54975 139.76741 29 ft 15 kts 60°
2026-05-04 17:42 35.55033 139.76865 29 ft 18 kts 60°
2026-05-04 17:42 35.55098 139.77006 28 ft 19 kts 60°
2026-05-04 17:43 35.55119 139.77138 29 ft 15 kts 132°
2026-05-04 17:43 35.55029 139.77211 29 ft 16 kts 150°
2026-05-04 17:43 35.54935 139.77278 29 ft 16 kts 150°
2026-05-04 17:43 35.54835 139.77349 29 ft 17 kts 150°
2026-05-04 17:44 35.54733 139.77421 29 ft 17 kts 150°
2026-05-04 17:44 35.54624 139.77498 29 ft 20 kts 150°
2026-05-04 17:44 35.54493 139.77592 29 ft 22 kts 150°
2026-05-04 17:44 35.54358 139.77688 29 ft 23 kts 150°
2026-05-04 17:45 35.54219 139.77786 29 ft 23 kts 150°
2026-05-04 17:45 35.54081 139.77885 29 ft 23 kts 150°
2026-05-04 17:45 35.54030 139.77931 29 ft 6 kts 127°
2026-05-04 17:45 35.54028 139.77984 29 ft 9 kts 82°
2026-05-04 17:46 35.54057 139.78058 29 ft 10 kts 62°
2026-05-04 17:46 35.54090 139.78136 29 ft 10 kts 62°
2026-05-04 17:46 35.54123 139.78207 31 ft 10 kts 59°
2026-05-04 17:46 35.54167 139.78289 31 ft 13 kts 58°
2026-05-04 17:47 35.54221 139.78397 30 ft 16 kts 59°
2026-05-04 17:47 35.54278 139.78522 31 ft 18 kts 60°
2026-05-04 17:47 35.54344 139.78662 31 ft 20 kts 60°
2026-05-04 17:47 35.54419 139.78821 29 ft 23 kts 60°
2026-05-04 17:48 35.54500 139.78991 31 ft 23 kts 60°
2026-05-04 17:48 35.54581 139.79163 30 ft 23 kts 60°
2026-05-04 17:48 35.54661 139.79333 30 ft 23 kts 60°
2026-05-04 17:48 35.54742 139.79501 30 ft 23 kts 59°
2026-05-04 17:49 35.54780 139.79670 29 ft 20 kts 120°
2026-05-04 17:49 35.54669 139.79764 29 ft 20 kts 150°
2026-05-04 17:49 35.54549 139.79849 29 ft 20 kts 150°
2026-05-04 17:49 35.54429 139.79935 29 ft 20 kts 150°
2026-05-04 17:50 35.54305 139.80022 29 ft 20 kts 150°
2026-05-04 17:50 35.54180 139.80110 30 ft 21 kts 150°
2026-05-04 17:50 35.54055 139.80200 30 ft 21 kts 149°
2026-05-04 17:50 35.53941 139.80284 30 ft 14 kts 142°
2026-05-04 17:51 35.53931 139.80388 30 ft 13 kts 62°
2026-05-04 17:51 35.53988 139.80471 30 ft 12 kts 19°
2026-05-04 17:51 35.54058 139.80444 30 ft 10 kts 331°
2026-05-04 17:51 35.54160 139.80373 30 ft 33 kts 330°
2026-05-04 17:52 35.54526 139.80116 30 ft 88 kts 329°
2026-05-04 17:52 35.55208 139.79633 30 ft 136 kts 330°
2026-05-04 17:52 35.56074 139.79022 529 ft 138 kts 331°
2026-05-04 17:52 35.56973 139.78719 1027 ft 145 kts 359°
2026-05-04 17:53 35.57859 139.79382 1606 ft 163 kts 47°
2026-05-04 17:53 35.58443 139.80601 2075 ft 171 kts 43°
2026-05-04 17:53 35.59196 139.81756 2255 ft 176 kts 31°
2026-05-04 17:53 35.60126 139.82779 2445 ft 191 kts 32°
2026-05-04 17:54 35.60942 139.84233 2614 ft 225 kts 62°
2026-05-04 17:54 35.61129 139.86252 2827 ft 252 kts 84°
2026-05-04 17:54 35.61078 139.88484 3080 ft 269 kts 86°
2026-05-04 17:54 35.61017 139.90806 3466 ft 277 kts 86°
2026-05-04 17:55 35.61274 139.93146 3887 ft 274 kts 64°
2026-05-04 17:55 35.62310 139.95042 4352 ft 266 kts 35°
2026-05-04 17:55 35.63885 139.96106 4756 ft 260 kts
2026-05-04 17:55 35.65666 139.96397 5225 ft 260 kts 357°
2026-05-04 17:56 35.67489 139.96497 5695 ft 266 kts 356°
2026-05-04 17:56 35.69368 139.96594 6205 ft 271 kts 357°
2026-05-04 17:56 35.71285 139.96706 6738 ft 276 kts 357°
2026-05-04 17:56 35.73192 139.96744 7267 ft 276 kts 349°
2026-05-04 17:57 35.75048 139.96204 7833 ft 271 kts 335°
2026-05-04 17:57 35.76809 139.95389 8429 ft 274 kts 333°
2026-05-04 17:57 35.78603 139.94530 9013 ft 277 kts 333°
2026-05-04 17:57 35.80408 139.93671 9577 ft 281 kts 333°
2026-05-04 17:58 35.82256 139.92796 10120 ft 285 kts 333°
2026-05-04 17:58 35.84128 139.91909 10413 ft 299 kts 333°
2026-05-04 17:58 35.86139 139.90956 10687 ft 313 kts 333°
2026-05-04 17:58 35.88201 139.89982 10982 ft 326 kts 333°
2026-05-04 17:59 35.90356 139.88965 11268 ft 339 kts 333°
2026-05-04 17:59 35.92584 139.87922 11600 ft 350 kts 332°
2026-05-04 17:59 35.97370 139.85892 12137 ft 381 kts 342°
2026-05-04 18:00 36.00083 139.85803 12480 ft 404 kts
2026-05-04 18:00 36.02864 139.86760 12883 ft 420 kts 14°
2026-05-04 18:00 36.05601 139.88046 13271 ft 426 kts 14°
2026-05-04 18:00 36.08399 139.89385 13668 ft 431 kts 14°
2026-05-04 18:01 36.11182 139.90707 14046 ft 436 kts 14°
2026-05-04 18:01 36.14055 139.92065 14410 ft 441 kts 14°
2026-05-04 18:01 36.16851 139.93662 14776 ft 454 kts 26°
2026-05-04 18:02 36.21094 139.99606 15457 ft 478 kts 65°
2026-05-04 18:02 36.22058 140.03588 15812 ft 481 kts 83°
2026-05-04 18:02 36.22518 140.07722 16223 ft 483 kts 85°
2026-05-04 18:02 36.22993 140.11820 16649 ft 488 kts 83°
2026-05-04 18:03 36.23550 140.15995 16984 ft 492 kts 82°
2026-05-04 18:03 36.24133 140.20160 17365 ft 495 kts 84°
2026-05-04 18:03 36.24269 140.24426 17673 ft 493 kts 101°
2026-05-04 18:03 36.23505 140.28490 18007 ft 482 kts 118°
2026-05-04 18:04 36.21892 140.32074 18388 ft 466 kts 137°
2026-05-04 18:04 36.19681 140.34829 18737 ft 450 kts 151°
2026-05-04 18:04 36.14715 140.39584 19469 ft 452 kts 153°
2026-05-04 18:05 36.12226 140.41953 19823 ft 455 kts 153°
2026-05-04 18:05 36.09724 140.44350 20224 ft 456 kts 153°
2026-05-04 18:05 36.07201 140.46777 20634 ft 458 kts 153°
2026-05-04 18:05 36.04660 140.49221 20984 ft 461 kts 153°
2026-05-04 18:06 35.99594 140.54095 21673 ft 465 kts 153°
2026-05-04 18:06 35.97055 140.56538 22039 ft 467 kts 153°
2026-05-04 18:06 35.94473 140.59022 22395 ft 470 kts 153°
2026-05-04 18:07 35.91902 140.61491 22723 ft 472 kts 153°
2026-05-04 18:07 35.89285 140.64002 23054 ft 474 kts 153°
2026-05-04 18:07 35.86690 140.66493 23369 ft 476 kts 154°
2026-05-04 18:07 35.84066 140.69009 23709 ft 478 kts 154°
2026-05-04 18:08 35.81423 140.71539 23961 ft 480 kts 154°
2026-05-04 18:08 35.78792 140.74057 24265 ft 482 kts 154°
2026-05-04 18:08 35.76176 140.76641 24562 ft 489 kts 151°
2026-05-04 18:08 35.73757 140.79706 24887 ft 509 kts 140°
2026-05-04 18:09 35.70257 140.87595 25458 ft 542 kts 122°
2026-05-04 18:09 35.67621 140.96411 25928 ft 554 kts 119°
2026-05-04 18:10 35.66345 141.00947 26249 ft 555 kts 119°
2026-05-04 18:10 35.65080 141.05423 26590 ft 556 kts 119°
2026-05-04 18:10 35.63802 141.09878 26891 ft 557 kts 120°
2026-05-04 18:10 35.62487 141.14390 27191 ft 559 kts 120°
2026-05-04 18:11 35.61177 141.18833 27477 ft 559 kts 121°
2026-05-04 18:11 35.59837 141.23349 27809 ft 559 kts 121°
2026-05-04 18:11 35.58505 141.27816 28087 ft 561 kts 121°
2026-05-04 18:11 35.57160 141.32316 28350 ft 562 kts 121°
2026-05-04 18:12 35.55804 141.36845 28616 ft 564 kts 121°
2026-05-04 18:12 35.54438 141.41401 28841 ft 566 kts 121°
2026-05-04 18:12 35.53097 141.45873 29072 ft 566 kts 121°
2026-05-04 18:12 35.51736 141.50424 29564 ft 562 kts 121°
2026-05-04 18:13 35.50407 141.54866 29967 ft 560 kts 122°
2026-05-04 18:13 35.49053 141.59375 30258 ft 559 kts 122°
2026-05-04 18:13 35.46351 141.68325 30777 ft 558 kts 122°
2026-05-04 18:14 35.45130 141.72837 31031 ft 568 kts 115°
2026-05-04 18:14 35.44398 141.77687 31256 ft 584 kts 104°
2026-05-04 18:14 35.44149 141.82695 31537 ft 588 kts 101°
2026-05-04 18:15 35.44013 141.92692 32020 ft 591 kts 98°
2026-05-04 18:15 35.44010 142.02824 32485 ft 590 kts 98°
2026-05-04 18:15 35.43998 142.07802 32729 ft 589 kts 98°
2026-05-04 18:16 35.43972 142.12825 33001 ft 587 kts 99°
2026-05-04 18:16 35.43948 142.16163 33126 ft 587 kts 99°
2026-05-04 18:16 35.43903 142.21184 33341 ft 586 kts 99°
2026-05-04 18:17 35.43797 142.31178 33701 ft 586 kts 99°
2026-05-04 18:17 35.43741 142.36128 33906 ft 585 kts 99°
2026-05-04 18:17 35.43625 142.46102 34220 ft 585 kts 99°
2026-05-04 18:18 35.43566 142.51061 34362 ft 585 kts 99°
2026-05-04 18:18 35.43441 142.61078 34466 ft 589 kts 99°
2026-05-04 18:18 35.43375 142.66066 34622 ft 589 kts 99°
2026-05-04 18:19 35.43235 142.76153 34919 ft 588 kts 99°
2026-05-04 18:19 35.43086 142.86119 34987 ft 591 kts 98°
2026-05-04 18:20 35.42925 142.96273 34987 ft 596 kts 98°
2026-05-04 18:20 35.42762 143.06389 34986 ft 594 kts 98°
2026-05-04 18:21 35.42592 143.16517 34988 ft 592 kts 99°
2026-05-04 18:21 35.43593 143.26596 34982 ft 610 kts 76°
2026-05-04 18:22 35.45238 143.31393 34986 ft 614 kts 61°
2026-05-04 18:22 35.47692 143.35704 34985 ft 612 kts 46°
2026-05-04 18:22 35.50802 143.39234 34985 ft 604 kts 31°
2026-05-04 18:22 35.54302 143.42067 34984 ft 600 kts 26°
2026-05-04 18:23 35.61460 143.47254 34979 ft 600 kts 23°
2026-05-04 18:23 35.68696 143.52333 34977 ft 601 kts 24°
2026-05-04 18:24 35.75967 143.57522 34975 ft 602 kts 24°
2026-05-04 18:24 35.83163 143.62740 34973 ft 603 kts 25°
2026-05-04 18:25 35.90418 143.68026 34974 ft 603 kts 25°
2026-05-04 18:25 35.97648 143.73293 35011 ft 604 kts 25°
2026-05-04 18:26 36.04826 143.78530 34970 ft 605 kts 25°
2026-05-04 18:26 36.12124 143.83867 34969 ft 606 kts 25°
2026-05-04 18:27 36.19359 143.89172 34969 ft 606 kts 25°
2026-05-04 18:27 36.26601 143.94496 34977 ft 606 kts 25°
2026-05-04 18:28 36.32709 143.98997 34968 ft 608 kts 25°
2026-05-04 18:28 36.39999 144.04378 34964 ft 608 kts 25°
2026-05-04 18:29 36.47292 144.09775 34962 ft 608 kts 25°
2026-05-04 18:29 36.54545 144.15154 34961 ft 609 kts 25°
2026-05-04 18:30 36.65472 144.23278 34963 ft 612 kts 25°
2026-05-04 18:31 36.72797 144.28741 34960 ft 612 kts 25°
2026-05-04 18:31 36.80078 144.34185 34966 ft 613 kts 25°
2026-05-04 18:32 36.87385 144.39677 34957 ft 614 kts 25°
2026-05-04 18:32 36.94688 144.45168 34947 ft 614 kts 25°
2026-05-04 18:33 37.02037 144.50707 34934 ft 614 kts 25°
2026-05-04 18:33 37.09341 144.56227 34934 ft 615 kts 25°
2026-05-04 18:34 37.16645 144.61759 34932 ft 617 kts 25°
2026-05-04 18:34 37.23989 144.67337 34928 ft 617 kts 25°
2026-05-04 18:35 37.31318 144.72916 34958 ft 617 kts 25°
2026-05-04 18:35 37.38689 144.78537 34917 ft 618 kts 26°
2026-05-04 18:36 37.46031 144.84150 34923 ft 619 kts 26°
2026-05-04 18:36 37.53383 144.89786 34913 ft 619 kts 26°
2026-05-04 18:37 37.60721 144.95424 34914 ft 619 kts 26°
2026-05-04 18:37 37.68071 145.01083 34899 ft 619 kts 26°
2026-05-04 18:38 37.75469 145.06792 34895 ft 619 kts 26°
2026-05-04 18:38 37.82775 145.12444 34893 ft 619 kts 26°
2026-05-04 18:39 37.90132 145.18149 34894 ft 621 kts 26°
2026-05-04 18:39 37.97498 145.23873 34886 ft 622 kts 26°
2026-05-04 18:40 38.04842 145.29596 34874 ft 621 kts 26°
2026-05-04 18:40 38.12194 145.35340 34899 ft 621 kts 26°
2026-05-04 18:41 38.19597 145.41134 34868 ft 623 kts 26°
2026-05-04 18:41 38.26936 145.46893 34865 ft 623 kts 26°
2026-05-04 18:42 38.34128 145.53091 34843 ft 630 kts 38°
2026-05-04 18:42 38.40717 145.60540 34852 ft 631 kts 40°
2026-05-04 18:43 38.47156 145.68151 34845 ft 632 kts 40°
2026-05-04 18:43 38.53567 145.75802 34839 ft 632 kts 40°
2026-05-04 18:44 38.59991 145.83447 34834 ft 631 kts 40°
2026-05-04 18:44 38.66421 145.91089 34826 ft 631 kts 40°
2026-05-04 18:45 38.72852 145.98746 34825 ft 631 kts 40°
2026-05-04 18:45 38.79260 146.06400 34811 ft 633 kts 41°
2026-05-04 18:46 38.85669 146.14077 34806 ft 633 kts 41°
2026-05-04 18:46 38.92132 146.21840 34816 ft 633 kts 41°
2026-05-04 18:47 38.98543 146.29560 34815 ft 633 kts 41°
2026-05-04 18:47 39.04963 146.37310 34800 ft 633 kts 41°
2026-05-04 18:48 39.11377 146.45074 34800 ft 634 kts 41°
2026-05-04 18:48 39.17779 146.52844 34789 ft 634 kts 41°
2026-05-04 18:49 39.24177 146.60630 34787 ft 634 kts 41°
2026-05-04 18:49 39.30576 146.68437 34781 ft 634 kts 41°
2026-05-04 18:50 39.36975 146.76266 34778 ft 634 kts 41°
2026-05-04 18:50 39.43376 146.84116 34768 ft 635 kts 41°
2026-05-04 18:51 39.49789 146.92002 34767 ft 635 kts 42°
2026-05-04 18:51 39.56183 146.99887 34753 ft 635 kts 42°
2026-05-04 18:52 39.62572 147.07786 34748 ft 635 kts 42°
2026-05-04 18:52 39.68956 147.15701 34746 ft 636 kts 42°
2026-05-04 18:53 39.75330 147.23624 34739 ft 636 kts 42°
2026-05-04 18:53 39.81748 147.31624 34733 ft 637 kts 42°
2026-05-04 18:54 39.88121 147.39590 34716 ft 636 kts 42°
2026-05-04 18:54 39.94495 147.47578 34718 ft 637 kts 42°
2026-05-04 18:55 40.00859 147.55575 34718 ft 638 kts 43°
2026-05-04 18:55 40.10467 147.67692 34691 ft 638 kts 43°
2026-05-04 18:56 40.16819 147.75728 34700 ft 638 kts 43°
2026-05-04 18:56 40.23188 147.83809 34694 ft 638 kts 43°
2026-05-04 18:57 40.29562 147.91919 34682 ft 639 kts 43°
2026-05-04 18:57 40.35926 148.00038 34689 ft 640 kts 43°
2026-05-04 18:58 40.42327 148.08228 34686 ft 640 kts 43°
2026-05-04 18:58 40.48682 148.16382 34682 ft 640 kts 43°
2026-05-04 18:59 40.55014 148.24528 34674 ft 640 kts 43°
2026-05-04 18:59 40.61362 148.32719 34667 ft 640 kts 44°
2026-05-04 19:00 40.67732 148.40960 34669 ft 640 kts 44°
2026-05-04 19:00 40.74061 148.49171 34667 ft 640 kts 44°
2026-05-04 19:01 40.80394 148.57411 34658 ft 640 kts 44°
2026-05-04 19:01 40.86738 148.65690 34650 ft 640 kts 44°
2026-05-04 19:02 40.93078 148.73987 34644 ft 641 kts 44°
2026-05-04 19:02 40.99377 148.82254 34644 ft 641 kts 44°
2026-05-04 19:03 41.05740 148.90629 34641 ft 641 kts 44°
2026-05-04 19:03 41.12016 148.98916 34638 ft 641 kts 44°
2026-05-04 19:04 41.18365 149.07327 34636 ft 642 kts 44°
2026-05-04 19:04 41.24664 149.15696 34630 ft 642 kts 44°
2026-05-04 19:05 41.30972 149.24101 34623 ft 643 kts 44°
2026-05-04 19:05 41.37274 149.32523 34622 ft 643 kts 44°
2026-05-04 19:06 41.43560 149.40947 34608 ft 643 kts 44°
2026-05-04 19:06 41.49867 149.49425 34619 ft 643 kts 44°
2026-05-04 19:07 41.56187 149.57945 34606 ft 643 kts 44°
2026-05-04 19:07 41.62480 149.66454 34604 ft 644 kts 45°
2026-05-04 19:08 41.67710 149.73544 34579 ft 644 kts 45°
2026-05-04 19:08 41.73973 149.82058 34599 ft 644 kts 45°
2026-05-04 19:09 41.80279 149.90657 34595 ft 644 kts 45°
2026-05-04 19:09 41.86545 149.99225 34606 ft 644 kts 45°
2026-05-04 19:10 41.91736 150.06345 34585 ft 644 kts 45°
2026-05-04 19:10 41.99036 150.16385 34565 ft 645 kts 45°
2026-05-04 19:11 42.05304 150.25033 34581 ft 644 kts 45°
2026-05-04 19:11 42.11547 150.33673 34569 ft 644 kts 45°
2026-05-04 19:12 42.20887 150.46651 34578 ft 643 kts 45°
2026-05-04 19:13 42.27143 150.55374 34567 ft 645 kts 45°
2026-05-04 19:13 42.33367 150.64079 34559 ft 645 kts 46°
2026-05-04 19:14 42.39572 150.72783 34559 ft 644 kts 46°
2026-05-04 19:14 42.45772 150.81510 34526 ft 644 kts 46°
2026-05-04 19:15 42.51957 150.90240 34581 ft 644 kts 46°
2026-05-04 19:15 42.58173 150.99040 34543 ft 645 kts 46°
2026-05-04 19:16 42.64349 151.07812 34542 ft 645 kts 46°
2026-05-04 19:16 42.70549 151.16645 34535 ft 645 kts 46°
2026-05-04 19:17 42.76778 151.25546 34498 ft 645 kts 46°
2026-05-04 19:17 42.82923 151.34354 34602 ft 645 kts 46°
2026-05-04 19:18 42.89103 151.43242 34530 ft 645 kts 46°
2026-05-04 19:18 42.95269 151.52137 34531 ft 646 kts 46°
2026-05-04 19:19 43.01431 151.61051 34526 ft 646 kts 46°
2026-05-04 19:19 43.07593 151.69994 34529 ft 647 kts 47°
2026-05-04 19:20 43.13764 151.78980 34521 ft 646 kts 47°
2026-05-04 19:20 43.19888 151.87925 34525 ft 646 kts 47°
2026-05-04 19:21 43.26035 151.96932 34504 ft 647 kts 47°
2026-05-04 19:21 43.32178 152.05962 34512 ft 646 kts 47°
2026-05-04 19:22 43.38303 152.14992 34507 ft 646 kts 47°
2026-05-04 19:22 43.44425 152.24050 34507 ft 645 kts 47°
2026-05-04 19:23 43.50522 152.33097 34566 ft 645 kts 47°
2026-05-04 19:23 43.56626 152.42184 34505 ft 646 kts 47°
2026-05-04 19:24 43.62695 152.51248 34501 ft 645 kts 47°
2026-05-04 19:24 43.68784 152.60371 34502 ft 645 kts 47°
2026-05-04 19:25 43.74827 152.69454 34483 ft 644 kts 47°
2026-05-04 19:25 43.80878 152.78579 34492 ft 643 kts 48°
2026-05-04 19:26 43.86942 152.87753 34493 ft 643 kts 48°
2026-05-04 19:26 43.92946 152.96867 34482 ft 642 kts 48°
2026-05-04 19:27 43.98966 153.06032 34488 ft 640 kts 48°
2026-05-04 19:27 44.04957 153.15185 34479 ft 640 kts 48°
2026-05-04 19:28 44.10898 153.24290 34479 ft 637 kts 48°
2026-05-04 19:28 44.16836 153.33420 34539 ft 636 kts 48°
2026-05-04 19:29 44.22769 153.42573 34474 ft 639 kts 48°
2026-05-04 19:29 44.28743 153.51817 34469 ft 640 kts 48°
2026-05-04 19:30 44.34682 153.61039 34463 ft 640 kts 49°
2026-05-04 19:30 44.40631 153.70305 34445 ft 640 kts 49°
2026-05-04 19:31 44.46585 153.79611 34459 ft 638 kts 49°
2026-05-04 19:31 44.52487 153.88866 34478 ft 638 kts 49°
2026-05-04 19:32 44.58388 153.98151 34436 ft 638 kts 49°
2026-05-04 19:32 44.64242 154.07390 34449 ft 637 kts 49°
2026-05-04 19:33 44.70148 154.16742 34449 ft 637 kts 49°
2026-05-04 19:33 44.76000 154.26042 34437 ft 635 kts 49°
2026-05-04 19:34 44.81810 154.35303 34437 ft 634 kts 49°
2026-05-04 19:34 44.87653 154.44658 34405 ft 635 kts 49°
2026-05-04 19:35 44.93400 154.54079 34426 ft 636 kts 50°
2026-05-04 19:35 44.99132 154.63600 34418 ft 636 kts 50°
2026-05-04 19:36 45.04876 154.73142 34412 ft 635 kts 50°
2026-05-04 19:36 45.10595 154.82643 34420 ft 633 kts 50°
2026-05-04 19:37 45.16312 154.92164 34415 ft 633 kts 50°
2026-05-04 19:37 45.21968 155.01619 34420 ft 633 kts 50°
2026-05-04 19:38 45.27677 155.11199 34401 ft 634 kts 50°
2026-05-04 19:38 45.33340 155.20732 34402 ft 634 kts 50°
2026-05-04 19:39 45.39007 155.30307 34400 ft 633 kts 50°
2026-05-04 19:39 45.44680 155.39923 34395 ft 631 kts 50°
2026-05-04 19:40 45.50302 155.49485 34394 ft 631 kts 50°
2026-05-04 19:40 45.55922 155.59078 34405 ft 631 kts 50°
2026-05-04 19:41 45.61546 155.68709 34387 ft 631 kts 51°
2026-05-04 19:41 45.67175 155.78382 34384 ft 631 kts 51°
2026-05-04 19:42 45.72764 155.88022 34376 ft 630 kts 50°
2026-05-04 19:42 45.78345 155.97679 34377 ft 628 kts 50°
2026-05-04 19:43 45.83877 156.07283 34375 ft 628 kts 51°
2026-05-04 19:43 45.89415 156.16934 34413 ft 628 kts 51°
2026-05-04 19:44 45.94965 156.26637 34372 ft 629 kts 51°
2026-05-04 19:44 46.00522 156.36388 34366 ft 630 kts 51°
2026-05-04 19:45 46.06075 156.46167 34365 ft 628 kts 51°
2026-05-04 19:45 46.11595 156.55920 34356 ft 627 kts 51°
2026-05-04 19:46 46.17067 156.65623 34359 ft 627 kts 51°
2026-05-04 19:46 46.22573 156.75420 34358 ft 625 kts 51°
2026-05-04 19:47 46.28007 156.85123 34356 ft 625 kts 51°
2026-05-04 19:47 46.33488 156.94945 34355 ft 627 kts 51°
2026-05-04 19:48 46.38939 157.04747 34347 ft 625 kts 51°
2026-05-04 19:48 46.44366 157.14541 34352 ft 624 kts 51°
2026-05-04 19:49 46.49785 157.24354 34357 ft 624 kts 51°
2026-05-04 19:49 46.55212 157.34217 34349 ft 622 kts 51°
2026-05-04 19:50 46.60587 157.44022 34383 ft 621 kts 51°
2026-05-04 19:50 46.65968 157.53870 34353 ft 623 kts 52°
2026-05-04 19:51 46.71356 157.63769 34347 ft 623 kts 51°
2026-05-04 19:51 46.76720 157.73657 34351 ft 622 kts 51°
2026-05-04 19:52 46.82086 157.83585 34346 ft 622 kts 52°
2026-05-04 19:52 46.87434 157.93517 34357 ft 621 kts 51°
2026-05-04 19:53 46.92760 158.03442 34359 ft 620 kts 51°
2026-05-04 19:53 46.98077 158.13383 34367 ft 620 kts 52°
2026-05-04 19:54 47.03381 158.23341 34365 ft 621 kts 51°
2026-05-04 19:54 47.08698 158.33357 34371 ft 620 kts 51°
2026-05-04 19:55 47.13954 158.43294 34380 ft 620 kts 51°
2026-05-04 19:55 47.19225 158.53296 34376 ft 619 kts 51°
2026-05-04 19:56 47.24494 158.63330 34384 ft 618 kts 51°
2026-05-04 19:56 47.29723 158.73325 34401 ft 618 kts 51°
2026-05-04 19:57 47.34953 158.83359 34400 ft 617 kts 51°
2026-05-04 19:57 47.40175 158.93415 34409 ft 615 kts 51°
2026-05-04 19:58 47.45354 159.03422 34403 ft 614 kts 51°
2026-05-04 19:58 47.50536 159.13471 34416 ft 614 kts 51°
2026-05-04 19:59 47.55705 159.23533 34425 ft 615 kts 51°
2026-05-04 19:59 47.60018 159.31958 34436 ft 614 kts 51°
2026-05-04 20:00 47.66015 159.43714 34465 ft 615 kts 52°
2026-05-04 20:00 47.71182 159.53885 34458 ft 615 kts 51°
2026-05-04 20:01 47.76292 159.63980 34475 ft 615 kts 52°
2026-05-04 20:01 47.80582 159.72486 34491 ft 614 kts 52°
2026-05-04 20:02 47.85708 159.82684 34492 ft 614 kts 51°
2026-05-04 20:02 47.90775 159.92802 34511 ft 613 kts 51°
2026-05-04 20:03 47.95863 160.02996 34524 ft 613 kts 51°
2026-05-04 20:03 48.00962 160.13254 34585 ft 612 kts 51°
2026-05-04 20:04 48.06014 160.23457 34561 ft 612 kts 51°
2026-05-04 20:04 48.11055 160.33671 34559 ft 613 kts 52°
2026-05-04 20:05 48.16105 160.43945 34560 ft 613 kts 51°
2026-05-04 20:05 48.21132 160.54212 34591 ft 611 kts 51°
2026-05-04 20:06 48.26145 160.64489 34604 ft 610 kts 51°
2026-05-04 20:06 48.31116 160.74821 34606 ft 611 kts 53°
2026-05-04 20:07 48.35927 160.85323 34666 ft 610 kts 54°
2026-05-04 20:07 48.40702 160.95853 34635 ft 609 kts 54°
2026-05-04 20:08 48.45491 161.06366 34653 ft 609 kts 54°
2026-05-04 20:08 48.50295 161.16905 34651 ft 609 kts 53°
2026-05-04 20:09 48.55100 161.27480 34667 ft 610 kts 53°
2026-05-04 20:09 48.59879 161.38044 34683 ft 610 kts 53°
2026-05-04 20:10 48.64633 161.48601 34692 ft 609 kts 53°
2026-05-04 20:10 48.69397 161.59225 34697 ft 607 kts 53°
2026-05-04 20:11 48.74113 161.69777 34717 ft 606 kts 53°
2026-05-04 20:11 48.78816 161.80343 34719 ft 606 kts 53°
2026-05-04 20:12 48.83528 161.90974 34724 ft 602 kts 53°
2026-05-04 20:12 48.88184 162.01519 34726 ft 600 kts 53°
2026-05-04 20:13 48.92818 162.12050 34746 ft 600 kts 53°
2026-05-04 20:13 48.97435 162.22588 34754 ft 600 kts 53°
2026-05-04 20:14 49.02047 162.33156 34752 ft 599 kts 53°
2026-05-04 20:14 49.06635 162.43707 34752 ft 599 kts 53°
2026-05-04 20:15 49.11232 162.54323 34756 ft 599 kts 53°
2026-05-04 20:15 49.15842 162.65011 34785 ft 600 kts 53°
2026-05-04 20:16 49.20409 162.75644 34800 ft 600 kts 53°
2026-05-04 20:16 49.24962 162.86286 34776 ft 600 kts 53°
2026-05-04 20:17 49.29550 162.97053 34804 ft 601 kts 53°
2026-05-04 20:17 49.34107 163.07789 34810 ft 601 kts 53°
2026-05-04 20:18 49.38635 163.18501 34820 ft 601 kts 53°
2026-05-04 20:18 49.43178 163.29292 34826 ft 601 kts 53°
2026-05-04 20:19 49.47694 163.40062 34829 ft 601 kts 53°
2026-05-04 20:19 49.52236 163.50941 34832 ft 601 kts 53°
2026-05-04 20:20 49.56735 163.61757 34831 ft 601 kts 53°
2026-05-04 20:20 49.61201 163.72538 34840 ft 600 kts 53°
2026-05-04 20:21 49.65682 163.83401 34850 ft 601 kts 53°
2026-05-04 20:21 49.72392 163.99752 34854 ft 601 kts 53°
2026-05-04 20:22 49.76872 164.10729 34864 ft 600 kts 53°
2026-05-04 20:22 49.81307 164.21636 34870 ft 600 kts 53°
2026-05-04 20:23 49.85751 164.32606 34873 ft 602 kts 53°
2026-05-04 20:23 49.90181 164.43596 34884 ft 602 kts 53°
2026-05-04 20:24 49.94599 164.54602 34883 ft 601 kts 53°
2026-05-04 20:24 49.99010 164.65633 34890 ft 601 kts 53°
2026-05-04 20:25 50.03410 164.76683 34898 ft 601 kts 53°
2026-05-04 20:25 50.07784 164.87721 34910 ft 599 kts 52°
2026-05-04 20:26 50.12159 164.98802 34897 ft 598 kts 53°
2026-05-04 20:26 50.16533 165.09821 34913 ft 596 kts 49°
2026-05-04 20:27 50.21837 165.19583 34923 ft 586 kts 39°
2026-05-04 20:27 50.27385 165.28859 34919 ft 583 kts 38°
2026-05-04 20:28 50.32954 165.38052 34926 ft 583 kts 38°
2026-05-04 20:28 50.38516 165.47294 34930 ft 583 kts 38°
2026-05-04 20:29 50.44037 165.56546 34930 ft 582 kts 38°
2026-05-04 20:29 50.49559 165.65848 34936 ft 581 kts 38°
2026-05-04 20:30 50.55075 165.75164 34938 ft 582 kts 38°
2026-05-04 20:30 50.60560 165.84461 34938 ft 582 kts 38°
2026-05-04 20:31 50.66065 165.93832 34946 ft 581 kts 38°
2026-05-04 20:31 50.71533 166.03181 34943 ft 578 kts 38°
2026-05-04 20:32 50.76987 166.12528 34941 ft 578 kts 38°
2026-05-04 20:32 50.82388 166.21813 34949 ft 578 kts 38°
2026-05-04 20:33 50.87826 166.31202 34947 ft 578 kts 38°
2026-05-04 20:33 50.93242 166.40591 34954 ft 578 kts 38°
2026-05-04 20:34 50.98669 166.50034 34960 ft 578 kts 38°
2026-05-04 20:34 51.04073 166.59472 34984 ft 579 kts 38°
2026-05-04 20:35 51.09480 166.68954 34966 ft 578 kts 38°
2026-05-04 20:35 51.14882 166.78467 34962 ft 575 kts 38°
2026-05-04 20:36 51.20206 166.87867 34971 ft 575 kts 38°
2026-05-04 20:36 51.25562 166.97357 34979 ft 575 kts 38°
2026-05-04 20:37 51.30907 167.06868 34988 ft 574 kts 38°
2026-05-04 20:37 51.36209 167.16347 34991 ft 571 kts 38°
2026-05-04 20:38 51.41490 167.25814 34999 ft 571 kts 38°
2026-05-04 20:38 51.46780 167.35327 34999 ft 571 kts 38°
2026-05-04 20:39 51.52049 167.44846 35000 ft 570 kts 38°
2026-05-04 20:39 51.57280 167.54350 35011 ft 564 kts 38°
2026-05-04 20:40 51.62475 167.63804 35009 ft 564 kts 38°
2026-05-04 20:40 51.67652 167.73252 35018 ft 563 kts 38°
2026-05-04 20:41 51.72821 167.82728 35022 ft 562 kts 38°
2026-05-04 20:41 51.77946 167.92176 35025 ft 556 kts 38°
2026-05-04 20:42 51.83031 168.01573 35026 ft 555 kts 38°
2026-05-04 20:42 51.88101 168.10964 35031 ft 555 kts 38°
2026-05-04 20:43 51.93164 168.20380 35031 ft 556 kts 38°
2026-05-04 20:43 51.98245 168.29883 35035 ft 552 kts 38°
2026-05-04 20:44 52.03246 168.39271 35041 ft 550 kts 38°
2026-05-04 20:44 52.08245 168.48674 35043 ft 550 kts 38°
2026-05-04 20:45 52.13234 168.58094 35050 ft 551 kts 38°
2026-05-04 20:45 52.18231 168.67575 35051 ft 549 kts 37°
2026-05-04 20:46 52.23161 168.76975 35069 ft 545 kts 37°
2026-05-04 20:46 52.28082 168.86371 35056 ft 546 kts 38°
2026-05-04 20:47 52.33013 168.95820 35064 ft 547 kts 38°
2026-05-04 20:47 52.37951 169.05327 35084 ft 547 kts 38°
2026-05-04 20:48 52.42827 169.14770 35067 ft 541 kts 38°
2026-05-04 20:48 52.47666 169.24159 35081 ft 539 kts 38°
2026-05-04 20:49 52.52515 169.33588 35075 ft 540 kts 38°
2026-05-04 20:49 52.57348 169.43026 35080 ft 540 kts 38°
2026-05-04 20:50 52.61348 169.50876 35090 ft 536 kts 39°
2026-05-04 20:50 52.66105 169.60261 35085 ft 530 kts 39°
2026-05-04 20:51 52.70829 169.69586 35088 ft 530 kts 39°
2026-05-04 20:51 52.75546 169.78923 35095 ft 530 kts 39°
2026-05-04 20:52 52.80244 169.88266 35100 ft 530 kts 39°
2026-05-04 20:52 52.84917 169.97607 35103 ft 526 kts 40°
2026-05-04 20:53 52.89547 170.06903 35104 ft 523 kts 40°
2026-05-04 20:53 52.94542 170.15344 35108 ft 500 kts 26°
2026-05-04 20:54 52.97420 170.18458 35112 ft 487 kts 18°
2026-05-04 20:54 53.00345 170.21163 35106 ft 485 kts 17°
2026-05-04 20:54 53.06332 170.26393 35108 ft 483 kts 16°
2026-05-04 20:55 53.12307 170.31530 35121 ft 484 kts 17°
2026-05-04 20:55 53.18287 170.36718 35116 ft 486 kts 17°
2026-05-04 20:56 53.24254 170.41942 35116 ft 486 kts 17°
2026-05-04 20:56 53.30235 170.47206 35122 ft 486 kts 17°
2026-05-04 20:57 53.36230 170.52497 35124 ft 486 kts 17°
2026-05-04 20:57 53.42217 170.57791 35130 ft 488 kts 18°
2026-05-04 20:58 53.48220 170.63118 35129 ft 488 kts 18°
2026-05-04 20:58 53.54240 170.68482 35136 ft 488 kts 19°
2026-05-04 20:59 53.60220 170.73829 35133 ft 488 kts 19°
2026-05-04 20:59 53.66227 170.79213 35134 ft 488 kts 19°
2026-05-04 21:00 53.72174 170.84560 35144 ft 487 kts 19°
2026-05-04 21:00 53.78180 170.89978 35141 ft 487 kts 19°
2026-05-04 21:01 53.84156 170.95387 35142 ft 487 kts 20°
2026-05-04 21:01 53.90127 171.00809 35148 ft 488 kts 20°
2026-05-04 21:02 53.96108 171.06249 35160 ft 490 kts 22°
2026-05-04 21:02 54.02137 171.11754 35155 ft 492 kts 22°
2026-05-04 21:03 54.08146 171.17273 35155 ft 492 kts 22°
2026-05-04 21:03 54.14170 171.22820 35162 ft 492 kts 22°
2026-05-04 21:04 54.20171 171.28361 35173 ft 492 kts 24°
2026-05-04 21:04 54.26192 171.33938 35172 ft 491 kts 24°
2026-05-04 21:05 54.32206 171.39528 35164 ft 491 kts 24°
2026-05-04 21:05 54.38207 171.45123 35186 ft 491 kts 24°
2026-05-04 21:06 54.44174 171.50708 35178 ft 488 kts 24°
2026-05-04 21:06 54.50121 171.56291 35178 ft 487 kts 25°
2026-05-04 21:07 54.56053 171.61877 35182 ft 487 kts 25°
2026-05-04 21:07 54.62005 171.67502 35185 ft 487 kts 25°
2026-05-04 21:08 54.67933 171.73123 35185 ft 487 kts 25°
2026-05-04 21:08 54.73864 171.78766 35204 ft 487 kts 25°
2026-05-04 21:09 54.79797 171.84431 35194 ft 487 kts 25°
2026-05-04 21:09 54.85717 171.90102 35195 ft 486 kts 25°
2026-05-04 21:10 54.91611 171.95834 35197 ft 487 kts 28°
2026-05-04 21:10 54.96945 172.03091 35200 ft 491 kts 38°
2026-05-04 21:11 55.02047 172.11046 35207 ft 492 kts 39°
2026-05-04 21:11 55.07106 172.19107 35208 ft 492 kts 39°
2026-05-04 21:12 55.12154 172.27166 35208 ft 492 kts 39°
2026-05-04 21:12 55.17201 172.35223 35214 ft 491 kts 39°
2026-05-04 21:13 55.22251 172.43304 35214 ft 491 kts 39°
2026-05-04 21:13 55.27283 172.51386 35221 ft 491 kts 39°
2026-05-04 21:14 55.32284 172.59447 35221 ft 490 kts 39°
2026-05-04 21:14 55.37322 172.67598 35218 ft 490 kts 40°
2026-05-04 21:15 55.42320 172.75715 35227 ft 490 kts 40°
2026-05-04 21:15 55.47306 172.83838 35228 ft 489 kts 40°
2026-05-04 21:16 55.52284 172.91981 35230 ft 488 kts 40°
2026-05-04 21:16 55.57254 173.00141 35230 ft 488 kts 40°
2026-05-04 21:17 55.62218 173.08318 35235 ft 488 kts 40°
2026-05-04 21:17 55.67198 173.16553 35235 ft 487 kts 40°
2026-05-04 21:18 55.72148 173.24768 35235 ft 487 kts 40°
2026-05-04 21:18 55.77056 173.32941 35241 ft 486 kts 40°
2026-05-04 21:19 55.81985 173.41181 35241 ft 486 kts 41°
2026-05-04 21:19 55.86918 173.49458 35246 ft 486 kts 41°
2026-05-04 21:20 55.91827 173.57724 35245 ft 485 kts 41°
2026-05-04 21:20 55.96718 173.65990 35255 ft 485 kts 41°
2026-05-04 21:21 56.01609 173.74286 35248 ft 485 kts 41°
2026-05-04 21:21 56.06498 173.82610 35252 ft 484 kts 41°
2026-05-04 21:22 56.11372 173.90939 35254 ft 484 kts 41°
2026-05-04 21:22 56.16244 173.99295 35257 ft 485 kts 41°
2026-05-04 21:23 56.21090 174.07636 35260 ft 484 kts 41°
2026-05-04 21:23 56.25949 174.16034 35259 ft 484 kts 41°
2026-05-04 21:24 56.30799 174.24443 35259 ft 484 kts 41°
2026-05-04 21:24 56.35628 174.32848 35264 ft 483 kts 41°
2026-05-04 21:25 56.40447 174.41268 35266 ft 483 kts 41°
2026-05-04 21:25 56.45284 174.49752 35266 ft 483 kts 41°
2026-05-04 21:26 56.50100 174.58228 35263 ft 483 kts 41°
2026-05-04 21:26 56.54918 174.66740 35268 ft 483 kts 41°
2026-05-04 21:27 56.59716 174.75250 35272 ft 483 kts 42°
2026-05-04 21:27 56.64501 174.83768 35274 ft 483 kts 42°
2026-05-04 21:28 56.69296 174.92336 35270 ft 483 kts 42°
2026-05-04 21:28 56.74070 175.00898 35271 ft 483 kts 42°
2026-05-04 21:29 56.78856 175.09515 35280 ft 483 kts 42°
2026-05-04 21:29 56.83624 175.18132 35278 ft 483 kts 42°
2026-05-04 21:30 56.88383 175.26765 35281 ft 483 kts 42°
2026-05-04 21:30 56.93140 175.35429 35278 ft 482 kts 42°
2026-05-04 21:31 57.00246 175.48431 35279 ft 482 kts 42°
2026-05-04 21:32 57.04974 175.57124 35291 ft 482 kts 42°
2026-05-04 21:32 57.09699 175.65843 35282 ft 482 kts 42°
2026-05-04 21:33 57.14424 175.74595 35290 ft 482 kts 42°
2026-05-04 21:33 57.19152 175.83389 35286 ft 482 kts 42°
2026-05-04 21:34 57.23864 175.92189 35287 ft 481 kts 42°
2026-05-04 21:34 57.28567 176.01002 35289 ft 481 kts 42°
2026-05-04 21:35 57.33238 176.09788 35294 ft 481 kts 42°
2026-05-04 21:35 57.37918 176.18627 35290 ft 481 kts 42°
2026-05-04 21:36 57.42608 176.27519 35290 ft 481 kts 42°
2026-05-04 21:36 57.47265 176.36381 35292 ft 481 kts 42°
2026-05-04 21:36 57.49604 176.40848 35526 ft 479 kts 42°
2026-05-04 21:37 57.51912 176.45255 35792 ft 477 kts 42°
2026-05-04 21:37 57.54258 176.49673 35961 ft 477 kts 41°
2026-05-04 21:37 57.56581 176.54016 36097 ft 477 kts 41°
2026-05-04 21:37 57.58942 176.58429 36250 ft 477 kts 41°
2026-05-04 21:38 57.61266 176.62787 36385 ft 478 kts 41°
2026-05-04 21:38 57.65951 176.71620 36594 ft 480 kts 42°
2026-05-04 21:39 57.70643 176.80525 36847 ft 481 kts 42°
2026-05-04 21:39 57.75322 176.89447 37083 ft 481 kts 42°
2026-05-04 21:40 57.79242 176.96946 37281 ft 482 kts 42°
2026-05-04 21:40 57.83963 177.06008 37299 ft 487 kts 42°
2026-05-04 21:41 57.88698 177.15132 37294 ft 488 kts 42°
2026-05-04 21:41 57.93410 177.24255 37297 ft 488 kts 43°
2026-05-04 21:42 57.98152 177.33469 37297 ft 488 kts 43°
2026-05-04 21:42 58.02870 177.42674 37297 ft 488 kts 43°
2026-05-04 21:43 58.07579 177.51897 37297 ft 488 kts 43°
2026-05-04 21:43 58.12275 177.61135 37298 ft 488 kts 43°
2026-05-04 21:44 58.16962 177.70392 37300 ft 487 kts 43°
2026-05-04 21:44 58.21648 177.79682 37299 ft 488 kts 43°
2026-05-04 21:45 58.26313 177.88970 37295 ft 488 kts 43°
2026-05-04 21:45 58.30990 177.98321 37296 ft 488 kts 43°
2026-05-04 21:46 58.35673 178.07720 37296 ft 488 kts 43°
2026-05-04 21:46 58.40330 178.17107 37294 ft 488 kts 43°
2026-05-04 21:47 58.44977 178.26514 37298 ft 487 kts 43°
2026-05-04 21:47 58.49629 178.35968 37293 ft 488 kts 43°
2026-05-04 21:48 58.54262 178.45423 37292 ft 488 kts 44°
2026-05-04 21:48 58.58881 178.54887 37294 ft 488 kts 44°
2026-05-04 21:49 58.63499 178.64391 37294 ft 488 kts 44°
2026-05-04 21:49 58.68140 178.73981 37292 ft 488 kts 44°
2026-05-04 21:50 58.72723 178.83491 37293 ft 487 kts 44°
2026-05-04 21:50 58.77344 178.93120 37293 ft 487 kts 44°
2026-05-04 21:51 58.81931 179.02718 37289 ft 487 kts 44°
2026-05-04 21:51 58.86489 179.12297 37293 ft 487 kts 44°
2026-05-04 21:52 58.91067 179.21957 37294 ft 487 kts 44°
2026-05-04 21:52 58.95648 179.31664 37289 ft 487 kts 44°
2026-05-04 21:53 59.00207 179.41366 37296 ft 487 kts 44°
2026-05-04 21:53 59.04772 179.51123 37304 ft 488 kts 44°
2026-05-04 21:54 59.09331 179.60910 37295 ft 488 kts 44°
2026-05-04 21:54 59.13862 179.70675 37292 ft 488 kts 44°
2026-05-04 21:55 59.18406 179.80511 37286 ft 488 kts 44°
2026-05-04 21:55 59.22951 179.90394 37288 ft 488 kts 45°
2026-05-04 21:56 59.27456 -179.99771 37287 ft 488 kts 45°
2026-05-04 21:56 59.31979 -179.89851 37277 ft 488 kts 45°
2026-05-04 21:57 59.36488 -179.79921 37287 ft 488 kts 45°
2026-05-04 21:57 59.41005 -179.69929 37275 ft 488 kts 45°
2026-05-04 21:58 59.45479 -179.59991 37283 ft 488 kts 45°
2026-05-04 21:58 59.49980 -179.49946 37283 ft 488 kts 45°
2026-05-04 21:59 59.54453 -179.39923 37286 ft 488 kts 45°
2026-05-04 21:59 59.58943 -179.29816 37274 ft 488 kts 45°
2026-05-04 22:00 59.63406 -179.19726 37279 ft 489 kts 45°
2026-05-04 22:00 59.67876 -179.09574 37279 ft 489 kts 45°
2026-05-04 22:01 59.72340 -178.99393 37278 ft 489 kts 46°
2026-05-04 22:01 59.76785 -178.89210 37276 ft 489 kts 46°
2026-05-04 22:02 59.81205 -178.79037 37278 ft 489 kts 46°
2026-05-04 22:02 59.85642 -178.68782 37274 ft 489 kts 46°
2026-05-04 22:03 59.90065 -178.58513 37281 ft 489 kts 46°
2026-05-04 22:03 59.94502 -178.48165 37273 ft 490 kts 46°
2026-05-04 22:04 59.98913 -178.37832 37272 ft 490 kts 46°
2026-05-04 22:04 60.03328 -178.27442 37269 ft 490 kts 46°
2026-05-04 22:05 60.07736 -178.17020 37268 ft 490 kts 46°
2026-05-04 22:05 60.12106 -178.06644 37264 ft 490 kts 46°
2026-05-04 22:06 60.16512 -177.96135 37278 ft 490 kts 46°
2026-05-04 22:06 60.21231 -177.86376 37265 ft 485 kts 37°
2026-05-04 22:07 60.26385 -177.77684 37265 ft 485 kts 36°
2026-05-04 22:07 60.31623 -177.69052 37260 ft 485 kts 36°
2026-05-04 22:08 60.36842 -177.60428 37260 ft 485 kts 36°
2026-05-04 22:08 60.42053 -177.51755 37254 ft 485 kts 36°
2026-05-04 22:09 60.47249 -177.43054 37252 ft 485 kts 36°
2026-05-04 22:09 60.52458 -177.34293 37252 ft 485 kts 36°
2026-05-04 22:10 60.57623 -177.25567 37251 ft 486 kts 37°
2026-05-04 22:10 60.62823 -177.16745 37247 ft 486 kts 37°
2026-05-04 22:11 60.68011 -177.07907 37244 ft 486 kts 37°
2026-05-04 22:11 60.73204 -176.99022 37241 ft 486 kts 37°
2026-05-04 22:12 60.78355 -176.90170 37239 ft 487 kts 37°
2026-05-04 22:12 60.83563 -176.81181 37232 ft 487 kts 37°
2026-05-04 22:13 60.88741 -176.72204 37234 ft 487 kts 37°
2026-05-04 22:13 60.93895 -176.63228 37233 ft 487 kts 37°
2026-05-04 22:14 60.99063 -176.54188 37239 ft 487 kts 37°
2026-05-04 22:14 61.04233 -176.45104 37221 ft 488 kts 37°
2026-05-04 22:15 61.09394 -176.36000 37221 ft 488 kts 37°
2026-05-04 22:15 61.14550 -176.26861 37217 ft 488 kts 38°
2026-05-04 22:16 61.19685 -176.17718 37207 ft 488 kts 38°
2026-05-04 22:16 61.24820 -176.08533 37217 ft 488 kts 38°
2026-05-04 22:17 61.29992 -175.99242 37210 ft 489 kts 38°
2026-05-04 22:17 61.35101 -175.90022 37208 ft 489 kts 38°
2026-05-04 22:18 61.40233 -175.80720 37206 ft 489 kts 38°
2026-05-04 22:18 61.45359 -175.71385 37206 ft 489 kts 38°
2026-05-04 22:19 61.50517 -175.61948 37200 ft 489 kts 38°
2026-05-04 22:19 61.55612 -175.52585 37200 ft 490 kts 38°
2026-05-04 22:20 61.60735 -175.43128 37200 ft 490 kts 38°
2026-05-04 22:20 61.65838 -175.33666 37195 ft 490 kts 38°
2026-05-04 22:21 61.70943 -175.24155 37195 ft 490 kts 38°
2026-05-04 22:21 61.76041 -175.14613 37192 ft 490 kts 38°
2026-05-04 22:22 61.81143 -175.05019 37191 ft 490 kts 38°
2026-05-04 22:22 61.86249 -174.95375 37196 ft 491 kts 38°
2026-05-04 22:23 61.91351 -174.85691 37190 ft 492 kts 38°
2026-05-04 22:23 61.96448 -174.75972 37186 ft 492 kts 39°
2026-05-04 22:24 62.01520 -174.66256 37186 ft 492 kts 39°
2026-05-04 22:24 62.06604 -174.56470 37183 ft 492 kts 39°
2026-05-04 22:25 62.11667 -174.46679 37185 ft 492 kts 39°
2026-05-04 22:25 62.16703 -174.36895 37184 ft 492 kts 39°
2026-05-04 22:26 62.21760 -174.27023 37182 ft 492 kts 39°
2026-05-04 22:26 62.26838 -174.17063 37191 ft 492 kts 39°
2026-05-04 22:27 62.31877 -174.07134 37174 ft 493 kts 39°
2026-05-04 22:27 62.36915 -173.97157 37174 ft 493 kts 39°
2026-05-04 22:28 62.41954 -173.87130 37179 ft 494 kts 39°
2026-05-04 22:28 62.46993 -173.77056 37171 ft 494 kts 39°
2026-05-04 22:29 62.52043 -173.66910 37174 ft 494 kts 39°
2026-05-04 22:29 62.57057 -173.56790 37183 ft 494 kts 40°
2026-05-04 22:30 62.61248 -173.48292 37181 ft 494 kts 40°
2026-05-04 22:30 62.66261 -173.38081 37175 ft 494 kts 40°
2026-05-04 22:31 62.71276 -173.27817 37181 ft 495 kts 40°
2026-05-04 22:31 62.76309 -173.17468 37174 ft 497 kts 40°
2026-05-04 22:32 62.81328 -173.07094 37174 ft 497 kts 40°
2026-05-04 22:32 62.86323 -172.96717 37173 ft 497 kts 40°
2026-05-04 22:33 62.91335 -172.86255 37171 ft 497 kts 40°
2026-05-04 22:33 62.96329 -172.75780 37178 ft 497 kts 40°
2026-05-04 22:34 63.01341 -172.65213 37170 ft 498 kts 40°
2026-05-04 22:34 63.06325 -172.54653 37171 ft 498 kts 40°
2026-05-04 22:35 63.11313 -172.44032 37156 ft 498 kts 41°
2026-05-04 22:35 63.16279 -172.33404 37167 ft 499 kts 41°
2026-05-04 22:36 63.21291 -172.22625 37168 ft 500 kts 41°
2026-05-04 22:36 63.26254 -172.11895 37168 ft 501 kts 41°
2026-05-04 22:37 63.31233 -172.01074 37167 ft 501 kts 41°
2026-05-04 22:37 63.36210 -171.90204 37167 ft 501 kts 41°
2026-05-04 22:38 63.41173 -171.79308 37168 ft 501 kts 41°
2026-05-04 22:38 63.46139 -171.68350 37182 ft 501 kts 41°
2026-05-04 22:39 63.51086 -171.57377 37186 ft 502 kts 42°
2026-05-04 22:39 63.56031 -171.46351 37187 ft 502 kts 42°
2026-05-04 22:40 63.60990 -171.35237 37188 ft 502 kts 42°
2026-05-04 22:40 63.65928 -171.24112 37169 ft 502 kts 42°
2026-05-04 22:41 63.70836 -171.12998 37174 ft 502 kts 42°
2026-05-04 22:41 63.75768 -171.01769 37164 ft 502 kts 42°
2026-05-04 22:42 63.80690 -170.90507 37162 ft 503 kts 43°
2026-05-04 22:42 63.85587 -170.79239 37158 ft 503 kts 43°
2026-05-04 22:43 63.90481 -170.67921 37160 ft 503 kts 43°
2026-05-04 22:43 63.95374 -170.56545 37165 ft 503 kts 43°
2026-05-04 22:44 64.00252 -170.45145 37156 ft 505 kts 44°
2026-05-04 22:44 64.05152 -170.33627 37172 ft 505 kts 44°
2026-05-04 22:45 64.10042 -170.22074 37150 ft 506 kts 44°
2026-05-04 22:45 64.17370 -170.04640 37146 ft 506 kts 44°
2026-05-04 22:46 64.22228 -169.93005 37163 ft 506 kts 44°
2026-05-04 22:46 64.27086 -169.81308 37168 ft 506 kts 44°
2026-05-04 22:47 64.31936 -169.69565 37159 ft 506 kts 45°
2026-05-04 22:47 64.36780 -169.57777 37154 ft 507 kts 45°
2026-05-04 22:48 64.41598 -169.45986 37157 ft 508 kts 45°
2026-05-04 22:48 64.46454 -169.34032 37157 ft 509 kts 45°
2026-05-04 22:49 64.51287 -169.22070 37154 ft 509 kts 45°
2026-05-04 22:49 64.56107 -169.10073 37155 ft 509 kts 45°
2026-05-04 22:50 64.60931 -168.98002 37159 ft 509 kts 46°
2026-05-04 22:50 64.65738 -168.85905 37156 ft 509 kts 46°
2026-05-04 22:51 64.70543 -168.73745 37160 ft 509 kts 46°
2026-05-04 22:51 64.75335 -168.61546 37160 ft 509 kts 46°
2026-05-04 22:52 64.80156 -168.49214 37155 ft 510 kts 46°
2026-05-04 22:52 64.84918 -168.36956 37158 ft 511 kts 46°
2026-05-04 22:53 64.89706 -168.24557 37158 ft 511 kts 46°
2026-05-04 22:53 64.94503 -168.12208 37154 ft 511 kts 43°
2026-05-04 22:54 65.00177 -168.02357 37158 ft 506 kts 25°
2026-05-04 22:54 65.06674 -167.95914 37157 ft 505 kts 19°
2026-05-04 22:55 65.13233 -167.90052 37172 ft 506 kts 19°
2026-05-04 22:55 65.19823 -167.84210 37158 ft 506 kts 19°
2026-05-04 22:56 65.26425 -167.78278 37163 ft 507 kts 19°
2026-05-04 22:56 65.33009 -167.72298 37162 ft 507 kts 19°
2026-05-04 22:57 65.39583 -167.66288 37168 ft 507 kts 19°
2026-05-04 22:57 65.46171 -167.60233 37171 ft 507 kts 19°
2026-05-04 22:58 65.52759 -167.54148 37163 ft 508 kts 19°
2026-05-04 22:58 65.59381 -167.47999 37163 ft 508 kts 20°
2026-05-04 22:59 65.65971 -167.41845 37160 ft 508 kts 20°
2026-05-04 22:59 65.72565 -167.35655 37157 ft 508 kts 20°
2026-05-04 23:00 65.79153 -167.29436 37151 ft 509 kts 20°
2026-05-04 23:00 65.85734 -167.23189 37148 ft 509 kts 20°
2026-05-04 23:01 65.92328 -167.16895 37153 ft 509 kts 20°
2026-05-04 23:01 65.98930 -167.10559 37156 ft 509 kts 20°
2026-05-04 23:02 66.05548 -167.04171 37159 ft 509 kts 20°
2026-05-04 23:02 66.12139 -166.97774 37144 ft 510 kts 20°
2026-05-04 23:03 66.18734 -166.91338 37145 ft 510 kts 20°
2026-05-04 23:03 66.25329 -166.84859 37150 ft 511 kts 20°
2026-05-04 23:04 66.31936 -166.78337 37154 ft 512 kts 20°
2026-05-04 23:04 66.38565 -166.71762 37154 ft 513 kts 21°
2026-05-04 23:05 66.45204 -166.65135 37151 ft 513 kts 21°
2026-05-04 23:05 66.51806 -166.58506 37148 ft 513 kts 21°
2026-05-04 23:06 66.58431 -166.51815 37148 ft 513 kts 21°
2026-05-04 23:06 66.65084 -166.45057 37154 ft 514 kts 21°
2026-05-04 23:07 66.71698 -166.38299 37151 ft 514 kts 21°
2026-05-04 23:07 66.78336 -166.31478 37151 ft 515 kts 21°
2026-05-04 23:08 66.84958 -166.24633 37148 ft 514 kts 21°
2026-05-04 23:08 66.91586 -166.17742 37149 ft 514 kts 21°
2026-05-04 23:09 66.98210 -166.10815 37147 ft 515 kts 21°
2026-05-04 23:09 67.04824 -166.03856 37146 ft 515 kts 21°
2026-05-04 23:10 67.11438 -165.96856 37148 ft 515 kts 21°
2026-05-04 23:10 67.18073 -165.89793 37150 ft 515 kts 21°
2026-05-04 23:11 67.24686 -165.82711 37162 ft 515 kts 21°
2026-05-04 23:11 67.31299 -165.75585 37148 ft 516 kts 22°
2026-05-04 23:12 67.37924 -165.68405 37148 ft 516 kts 22°
2026-05-04 23:12 67.44567 -165.61161 37148 ft 516 kts 22°
2026-05-04 23:13 67.51202 -165.53882 37146 ft 516 kts 22°
2026-05-04 23:13 67.57816 -165.46582 37145 ft 516 kts 22°
2026-05-04 23:14 67.64425 -165.39242 37146 ft 517 kts 22°
2026-05-04 23:14 67.71047 -165.31843 37146 ft 517 kts 22°
2026-05-04 23:15 67.77658 -165.24411 37143 ft 517 kts 22°
2026-05-04 23:15 67.84263 -165.16939 37143 ft 517 kts 22°
2026-05-04 23:16 67.90891 -165.09395 37143 ft 517 kts 22°
2026-05-04 23:16 67.97496 -165.01830 37143 ft 517 kts 22°
2026-05-04 23:17 68.04096 -164.94224 37140 ft 517 kts 22°
2026-05-04 23:17 68.10698 -164.86567 37140 ft 517 kts 22°
2026-05-04 23:18 68.16185 -164.80169 37140 ft 517 kts 22°
2026-05-04 23:18 68.23866 -164.71154 37139 ft 518 kts 23°
2026-05-04 23:19 68.29403 -164.64613 37135 ft 518 kts 23°
2026-05-04 23:19 68.36005 -164.56770 37136 ft 518 kts 23°
2026-05-04 23:20 68.42572 -164.48917 37140 ft 518 kts 23°
2026-05-04 23:20 68.49167 -164.40982 37142 ft 518 kts 23°
2026-05-04 23:21 68.55782 -164.32971 37135 ft 518 kts 23°
2026-05-04 23:21 68.62350 -164.24965 37135 ft 519 kts 23°
2026-05-04 23:22 68.68930 -164.16892 37135 ft 519 kts 23°
2026-05-04 23:22 68.75511 -164.08767 37134 ft 519 kts 24°
2026-05-04 23:23 68.82083 -164.00598 37126 ft 519 kts 24°
2026-05-04 23:23 68.88679 -163.92346 37129 ft 521 kts 24°
2026-05-04 23:24 68.95313 -163.83995 37134 ft 521 kts 24°
2026-05-04 23:24 69.01900 -163.75647 37132 ft 521 kts 24°
2026-05-04 23:25 69.08460 -163.67276 37131 ft 521 kts 24°
2026-05-04 23:25 69.15056 -163.58804 37134 ft 522 kts 24°
2026-05-04 23:26 69.21673 -163.50248 37132 ft 522 kts 24°
2026-05-04 23:26 69.28245 -163.41693 37130 ft 521 kts 24°
2026-05-04 23:27 69.34807 -163.33093 37129 ft 522 kts 24°
2026-05-04 23:27 69.41402 -163.24391 37133 ft 522 kts 25°
2026-05-04 23:28 69.47976 -163.15658 37130 ft 522 kts 25°
2026-05-04 23:28 69.54542 -163.06876 37124 ft 522 kts 25°
2026-05-04 23:29 69.61100 -162.98046 37111 ft 522 kts 25°
2026-05-04 23:29 69.67699 -162.89099 37110 ft 522 kts 25°
2026-05-04 23:30 69.74215 -162.80204 37110 ft 522 kts 25°
2026-05-04 23:30 69.80804 -162.71145 37111 ft 522 kts 25°
2026-05-04 23:31 69.87337 -162.62103 37114 ft 522 kts 25°
2026-05-04 23:31 69.93870 -162.52997 37116 ft 522 kts 25°
2026-05-04 23:32 70.00398 -162.43834 37115 ft 522 kts 25°
2026-05-04 23:32 70.06967 -162.34549 37113 ft 522 kts 26°
2026-05-04 23:33 70.13506 -162.25241 37113 ft 522 kts 26°
2026-05-04 23:33 70.20023 -162.15899 37113 ft 522 kts 26°
2026-05-04 23:34 70.26540 -162.06490 37108 ft 522 kts 26°
2026-05-04 23:34 70.33066 -161.97001 37109 ft 522 kts 26°
2026-05-04 23:35 70.39580 -161.87462 37105 ft 522 kts 26°
2026-05-04 23:35 70.46108 -161.77834 37105 ft 522 kts 26°
2026-05-04 23:36 70.52568 -161.68237 37099 ft 522 kts 26°
2026-05-04 23:36 70.59078 -161.58496 37100 ft 522 kts 26°
2026-05-04 23:37 70.65552 -161.48739 37095 ft 522 kts 26°
2026-05-04 23:37 70.72027 -161.38909 37094 ft 521 kts 27°
2026-05-04 23:38 70.78503 -161.29005 37094 ft 521 kts 27°
2026-05-04 23:38 70.84972 -161.19041 37094 ft 521 kts 27°
2026-05-04 23:39 70.91428 -161.09022 37097 ft 521 kts 27°
2026-05-04 23:39 70.97864 -160.98961 37097 ft 521 kts 27°
2026-05-04 23:40 71.04318 -160.88797 37094 ft 521 kts 27°
2026-05-04 23:40 71.10769 -160.78563 37094 ft 521 kts 27°
2026-05-04 23:41 71.17197 -160.68289 37091 ft 521 kts 27°
2026-05-04 23:41 71.23605 -160.57971 37091 ft 521 kts 27°
2026-05-04 23:42 71.30039 -160.47532 37089 ft 521 kts 28°
2026-05-04 23:42 71.36466 -160.37026 37089 ft 520 kts 28°
2026-05-04 23:43 71.42866 -160.26484 37088 ft 521 kts 28°
2026-05-04 23:43 71.49273 -160.15851 37089 ft 521 kts 28°
2026-05-04 23:44 71.55669 -160.05155 37092 ft 521 kts 28°
2026-05-04 23:44 71.62057 -159.94392 37091 ft 521 kts 28°
2026-05-04 23:45 71.68456 -159.83525 37094 ft 521 kts 28°
2026-05-04 23:45 71.74854 -159.72576 37094 ft 521 kts 28°
2026-05-04 23:46 71.81230 -159.61580 37096 ft 521 kts 28°
2026-05-04 23:46 71.87602 -159.50506 37100 ft 521 kts 29°
2026-05-04 23:47 71.93971 -159.39351 37105 ft 521 kts 29°
2026-05-04 23:47 72.00327 -159.28130 37105 ft 521 kts 29°
2026-05-04 23:48 72.06676 -159.16835 37105 ft 522 kts 29°
2026-05-04 23:48 72.13027 -159.05444 37110 ft 522 kts 29°
2026-05-04 23:49 72.19390 -158.93943 37107 ft 521 kts 30°
2026-05-04 23:49 72.25724 -158.82404 37114 ft 521 kts 30°
2026-05-04 23:50 72.32058 -158.70769 37116 ft 521 kts 30°
2026-05-04 23:50 72.38367 -158.59089 37119 ft 521 kts 30°
2026-05-04 23:51 72.44674 -158.47317 37116 ft 522 kts 30°
2026-05-04 23:51 72.50988 -158.35437 37121 ft 521 kts 30°
2026-05-04 23:52 72.57293 -158.23479 37121 ft 520 kts 30°
2026-05-04 23:52 72.63567 -158.11481 37126 ft 520 kts 30°
2026-05-04 23:53 72.69834 -157.99399 37129 ft 520 kts 31°
2026-05-04 23:53 72.76120 -157.87180 37132 ft 520 kts 31°
2026-05-04 23:54 72.82349 -157.74971 37128 ft 520 kts 31°
2026-05-04 23:54 72.88602 -157.62615 37138 ft 519 kts 31°
2026-05-04 23:55 72.94820 -157.50227 37146 ft 519 kts 31°
2026-05-04 23:56 73.04143 -157.31456 37148 ft 519 kts 31°
2026-05-04 23:56 73.10380 -157.18767 37148 ft 519 kts 31°
2026-05-04 23:57 73.16566 -157.06077 37154 ft 519 kts 31°
2026-05-04 23:57 73.22769 -156.93243 37156 ft 519 kts 32°
2026-05-04 23:58 73.28950 -156.80348 37156 ft 518 kts 32°
2026-05-04 23:58 73.35123 -156.67358 37162 ft 518 kts 32°
2026-05-04 23:59 73.41277 -156.54297 37159 ft 518 kts 32°
2026-05-04 23:59 73.47422 -156.41143 37168 ft 518 kts 32°
2026-05-05 00:00 73.53546 -156.27923 37171 ft 517 kts 32°
2026-05-05 00:00 73.59702 -156.14516 37173 ft 518 kts 32°
2026-05-05 00:01 73.65799 -156.01125 37171 ft 518 kts 32°
2026-05-05 00:01 73.71925 -155.87552 37169 ft 517 kts 33°
2026-05-05 00:02 73.78025 -155.73917 37171 ft 517 kts 33°
2026-05-05 00:02 73.84097 -155.60227 37169 ft 517 kts 33°
2026-05-05 00:03 73.90178 -155.46394 37167 ft 517 kts 33°
2026-05-05 00:03 73.96235 -155.32495 37165 ft 516 kts 33°
2026-05-05 00:04 74.02270 -155.18529 37182 ft 518 kts 33°
2026-05-05 00:04 74.08360 -155.04302 37181 ft 519 kts 33°
2026-05-05 00:05 74.14405 -154.90052 37181 ft 519 kts 33°
2026-05-05 00:05 74.20448 -154.75681 37181 ft 519 kts 34°
2026-05-05 00:06 74.26519 -154.61115 37181 ft 519 kts 34°
2026-05-05 00:06 74.32546 -154.46521 37184 ft 519 kts 34°
2026-05-05 00:07 74.38548 -154.31852 37189 ft 518 kts 34°
2026-05-05 00:07 74.44557 -154.17034 37192 ft 517 kts 34°
2026-05-05 00:08 74.50507 -154.02224 37192 ft 517 kts 34°
2026-05-05 00:08 74.55501 -153.89691 37192 ft 517 kts 34°
2026-05-05 00:09 74.62461 -153.72058 37195 ft 517 kts 34°
2026-05-05 00:09 74.67407 -153.59413 37198 ft 516 kts 34°
2026-05-05 00:10 74.73338 -153.44120 37197 ft 515 kts 35°
2026-05-05 00:10 74.79252 -153.28725 37197 ft 515 kts 35°
2026-05-05 00:11 74.85168 -153.13180 37199 ft 515 kts 35°
2026-05-05 00:11 74.91055 -152.97565 37200 ft 515 kts 35°
2026-05-05 00:12 74.96916 -152.81873 37206 ft 514 kts 35°
2026-05-05 00:12 75.02748 -152.66111 37205 ft 513 kts 36°
2026-05-05 00:13 75.08574 -152.50213 37208 ft 513 kts 36°
2026-05-05 00:13 75.14419 -152.34113 37209 ft 513 kts 36°
2026-05-05 00:14 75.20242 -152.17915 37210 ft 513 kts 36°
2026-05-05 00:14 75.26002 -152.01740 37210 ft 512 kts 36°
2026-05-05 00:15 75.31797 -151.85310 37214 ft 512 kts 36°
2026-05-05 00:15 75.37542 -151.68861 37214 ft 512 kts 36°
2026-05-05 00:16 75.43297 -151.52224 37219 ft 512 kts 37°
2026-05-05 00:16 75.49043 -151.35447 37219 ft 512 kts 37°
2026-05-05 00:17 75.54764 -151.18580 37222 ft 511 kts 37°
2026-05-05 00:17 75.60479 -151.01565 37222 ft 511 kts 37°
2026-05-05 00:18 75.66175 -150.84436 37225 ft 511 kts 37°
2026-05-05 00:18 75.71856 -150.67180 37223 ft 511 kts 37°
2026-05-05 00:19 75.77534 -150.49762 37230 ft 511 kts 38°
2026-05-05 00:19 75.83179 -150.32270 37230 ft 511 kts 38°
2026-05-05 00:20 75.88817 -150.14624 37240 ft 511 kts 38°
2026-05-05 00:20 75.94433 -149.96867 37237 ft 510 kts 38°
2026-05-05 00:21 76.00034 -149.78979 37245 ft 510 kts 38°
2026-05-05 00:21 76.05634 -149.60908 37244 ft 510 kts 38°
2026-05-05 00:22 76.11237 -149.42643 37248 ft 510 kts 38°
2026-05-05 00:22 76.16800 -149.24320 37250 ft 511 kts 38°
2026-05-05 00:23 76.22381 -149.05742 37253 ft 511 kts 39°
2026-05-05 00:23 76.27899 -148.87187 37255 ft 511 kts 39°
2026-05-05 00:24 76.33450 -148.68321 37262 ft 511 kts 39°
2026-05-05 00:24 76.38956 -148.49410 37263 ft 511 kts 39°
2026-05-05 00:25 76.44473 -148.30262 37261 ft 511 kts 39°
2026-05-05 00:25 76.49974 -148.10968 37270 ft 511 kts 39°
2026-05-05 00:26 76.55434 -147.91610 37279 ft 511 kts 39°
2026-05-05 00:26 76.60918 -147.71956 37279 ft 511 kts 40°
2026-05-05 00:27 76.66354 -147.52263 37287 ft 511 kts 40°
2026-05-05 00:27 76.71798 -147.32325 37290 ft 511 kts 40°
2026-05-05 00:28 76.77225 -147.12231 37288 ft 512 kts 40°
2026-05-05 00:28 76.82619 -146.92041 37287 ft 511 kts 40°
2026-05-05 00:29 76.87984 -146.71746 37287 ft 511 kts 40°
2026-05-05 00:29 76.93377 -146.51106 37296 ft 511 kts 41°
2026-05-05 00:30 76.98707 -146.30480 37293 ft 511 kts 41°
2026-05-05 00:30 77.04043 -146.09604 37304 ft 511 kts 41°
2026-05-05 00:31 77.09384 -145.88472 37303 ft 511 kts 41°
2026-05-05 00:31 77.14690 -145.67233 37313 ft 511 kts 41°
2026-05-05 00:32 77.19962 -145.45894 37311 ft 511 kts 42°
2026-05-05 00:32 77.25238 -145.24293 37322 ft 511 kts 42°
2026-05-05 00:33 77.30480 -145.02585 37318 ft 511 kts 42°
2026-05-05 00:33 77.35701 -144.80712 37329 ft 511 kts 42°
2026-05-05 00:34 77.40905 -144.58665 37327 ft 510 kts 43°
2026-05-05 00:34 77.46129 -144.36265 37337 ft 511 kts 43°
2026-05-05 00:35 77.51284 -144.13904 37336 ft 511 kts 43°
2026-05-05 00:35 77.56450 -143.91227 37344 ft 509 kts 43°
2026-05-05 00:36 77.61551 -143.68571 37343 ft 510 kts 43°
2026-05-05 00:36 77.66657 -143.45628 37355 ft 511 kts 44°
2026-05-05 00:37 77.71760 -143.22415 37354 ft 510 kts 44°
2026-05-05 00:37 77.76824 -142.99107 37365 ft 510 kts 44°
2026-05-05 00:38 77.81871 -142.75595 37363 ft 509 kts 44°
2026-05-05 00:38 77.86877 -142.51988 37373 ft 508 kts 44°
2026-05-05 00:39 77.91900 -142.28009 37374 ft 508 kts 45°
2026-05-05 00:39 77.96864 -142.04024 37372 ft 509 kts 45°
2026-05-05 00:40 78.01812 -141.79816 37382 ft 509 kts 45°
2026-05-05 00:40 78.06738 -141.55416 37381 ft 507 kts 45°
2026-05-05 00:41 78.11616 -141.30955 37382 ft 507 kts 45°
2026-05-05 00:41 78.14060 -141.18583 37497 ft 507 kts 45°
2026-05-05 00:41 78.16500 -141.06154 37734 ft 505 kts 46°
2026-05-05 00:41 78.18937 -140.93717 37968 ft 504 kts 45°
2026-05-05 00:42 78.21409 -140.81782 38142 ft 503 kts 43°
2026-05-05 00:42 78.23942 -140.70081 38299 ft 503 kts 42°
2026-05-05 00:42 78.26516 -140.58324 38447 ft 503 kts 42°
2026-05-05 00:42 78.29072 -140.46564 38580 ft 503 kts 43°
2026-05-05 00:43 78.31595 -140.34798 38751 ft 502 kts 43°
2026-05-05 00:43 78.34118 -140.22867 38903 ft 501 kts 43°
2026-05-05 00:43 78.36616 -140.10916 39017 ft 502 kts 44°
2026-05-05 00:44 78.41625 -139.86611 39203 ft 502 kts 44°
2026-05-05 00:44 78.46584 -139.62219 39360 ft 502 kts 44°
2026-05-05 00:45 78.51553 -139.37482 39419 ft 505 kts 44°
2026-05-05 00:45 78.56512 -139.12480 39422 ft 506 kts 45°
2026-05-05 00:46 78.61467 -138.87180 39430 ft 504 kts 45°
2026-05-05 00:46 78.66373 -138.61802 39431 ft 504 kts 45°
2026-05-05 00:47 78.71238 -138.36303 39439 ft 504 kts 45°
2026-05-05 00:47 78.76089 -138.10553 39438 ft 504 kts 45°
2026-05-05 00:48 78.80923 -137.84554 39440 ft 504 kts 46°
2026-05-05 00:48 78.85757 -137.58205 39444 ft 502 kts 46°
2026-05-05 00:49 78.90518 -137.31900 39444 ft 502 kts 46°
2026-05-05 00:49 78.95266 -137.05330 39452 ft 502 kts 47°
2026-05-05 00:50 78.99986 -136.78549 39452 ft 502 kts 47°
2026-05-05 00:50 79.04692 -136.51489 39457 ft 502 kts 47°
2026-05-05 00:51 79.09395 -136.24072 39455 ft 501 kts 47°
2026-05-05 00:51 79.14017 -135.96762 39457 ft 501 kts 48°
2026-05-05 00:52 79.18657 -135.68964 39469 ft 501 kts 48°
2026-05-05 00:52 79.23245 -135.41098 39455 ft 501 kts 48°
2026-05-05 00:53 79.27835 -135.12826 39457 ft 501 kts 49°
2026-05-05 00:53 79.32355 -134.84601 39474 ft 501 kts 49°
2026-05-05 00:54 79.36880 -134.55932 39485 ft 500 kts 49°
2026-05-05 00:54 79.41386 -134.26975 39485 ft 500 kts 49°
2026-05-05 00:55 79.45832 -133.97996 39467 ft 500 kts 50°
2026-05-05 00:55 79.50258 -133.68733 39488 ft 500 kts 50°
2026-05-05 00:56 79.54675 -133.39105 39472 ft 500 kts 50°
2026-05-05 00:56 79.59066 -133.09217 39489 ft 500 kts 51°
2026-05-05 00:57 79.63402 -132.79272 39486 ft 500 kts 51°
2026-05-05 00:57 79.67727 -132.48959 39496 ft 500 kts 51°
2026-05-05 00:58 79.72039 -132.18282 39502 ft 500 kts 51°
2026-05-05 00:58 79.76277 -131.87670 39504 ft 500 kts 52°
2026-05-05 00:59 79.80519 -131.56566 39511 ft 500 kts 52°
2026-05-05 00:59 79.84738 -131.25160 39497 ft 499 kts 52°
2026-05-05 01:00 79.88193 -130.99076 39512 ft 499 kts 52°
2026-05-05 01:00 79.92331 -130.67393 39511 ft 499 kts 53°
2026-05-05 01:01 79.97125 -130.30065 39520 ft 499 kts 53°
2026-05-05 01:01 80.00538 -130.03080 39521 ft 499 kts 53°
2026-05-05 01:02 80.04571 -129.70723 39507 ft 498 kts 54°
2026-05-05 01:02 80.08590 -129.37966 39518 ft 498 kts 54°
2026-05-05 01:03 80.12591 -129.04816 39528 ft 498 kts 54°
2026-05-05 01:03 80.16537 -128.71607 39531 ft 498 kts 55°
2026-05-05 01:04 80.20445 -128.38176 39519 ft 498 kts 55°
2026-05-05 01:04 80.26240 -127.87565 39528 ft 497 kts 56°
2026-05-05 01:05 80.30086 -127.53284 39526 ft 497 kts 56°
2026-05-05 01:05 80.33868 -127.18999 39544 ft 497 kts 57°
2026-05-05 01:06 80.37632 -126.84300 39528 ft 497 kts 57°
2026-05-05 01:06 80.41339 -126.49541 39536 ft 497 kts 57°
2026-05-05 01:07 80.45042 -126.14209 39542 ft 497 kts 58°
2026-05-05 01:07 80.48676 -125.78940 39544 ft 496 kts 58°
2026-05-05 01:08 80.52286 -125.43293 39548 ft 496 kts 58°
2026-05-05 01:08 80.55855 -125.07417 39551 ft 496 kts 59°
2026-05-05 01:09 80.59378 -124.71366 39551 ft 496 kts 59°
2026-05-05 01:09 80.62885 -124.34837 39574 ft 496 kts 59°
2026-05-05 01:10 80.66336 -123.98237 39563 ft 495 kts 60°
2026-05-05 01:10 80.69742 -123.61440 39559 ft 494 kts 60°
2026-05-05 01:11 80.73087 -123.24629 39560 ft 494 kts 60°
2026-05-05 01:11 80.76419 -122.87282 39563 ft 494 kts 61°
2026-05-05 01:12 80.79716 -122.49634 39568 ft 494 kts 61°
2026-05-05 01:12 80.82967 -122.11780 39570 ft 494 kts 62°
2026-05-05 01:13 80.86176 -121.73690 39571 ft 493 kts 62°
2026-05-05 01:13 80.89355 -121.35219 39571 ft 493 kts 63°
2026-05-05 01:14 80.92460 -120.96900 39577 ft 493 kts 63°
2026-05-05 01:14 80.95560 -120.57874 39581 ft 493 kts 63°
2026-05-05 01:15 80.98597 -120.18859 39583 ft 493 kts 64°
2026-05-05 01:15 81.01630 -119.79714 39582 ft 492 kts 62°
2026-05-05 01:16 81.04842 -119.41204 39582 ft 491 kts 62°
2026-05-05 01:16 81.08066 -119.02456 39588 ft 492 kts 62°
2026-05-05 01:17 81.11232 -118.63122 39587 ft 492 kts 63°
2026-05-05 01:17 81.14315 -118.23692 39593 ft 492 kts 63°
2026-05-05 01:18 81.17357 -117.83900 39590 ft 491 kts 64°
2026-05-05 01:18 81.20350 -117.43937 39592 ft 491 kts 64°
2026-05-05 01:19 81.23312 -117.03580 39587 ft 491 kts 65°
2026-05-05 01:19 81.26234 -116.62914 39597 ft 491 kts 65°
2026-05-05 01:20 81.29087 -116.22353 39599 ft 491 kts 65°
2026-05-05 01:20 81.31929 -115.81046 39599 ft 491 kts 66°
2026-05-05 01:21 81.34711 -115.39701 39598 ft 491 kts 66°
2026-05-05 01:21 81.37436 -114.98272 39602 ft 491 kts 67°
2026-05-05 01:22 81.40130 -114.56381 39597 ft 491 kts 67°
2026-05-05 01:22 81.42770 -114.14353 39598 ft 491 kts 68°
2026-05-05 01:23 81.45368 -113.72038 39600 ft 491 kts 68°
2026-05-05 01:23 81.47922 -113.29413 39599 ft 491 kts 69°
2026-05-05 01:24 81.50444 -112.86276 39609 ft 491 kts 69°
2026-05-05 01:24 81.52895 -112.43308 39609 ft 491 kts 69°
2026-05-05 01:25 81.55310 -111.99892 39625 ft 491 kts 70°
2026-05-05 01:25 81.57673 -111.56298 39611 ft 491 kts 70°
2026-05-05 01:26 81.59984 -111.12531 39626 ft 491 kts 71°
2026-05-05 01:26 81.62257 -110.68330 39611 ft 491 kts 71°
2026-05-05 01:27 81.64471 -110.24072 39610 ft 491 kts 71°
2026-05-05 01:27 81.66635 -109.79602 39614 ft 491 kts 72°
2026-05-05 01:28 81.68749 -109.34920 39627 ft 490 kts 72°
2026-05-05 01:28 81.70811 -108.90037 39616 ft 490 kts 73°
2026-05-05 01:29 81.72833 -108.44717 39628 ft 490 kts 73°
2026-05-05 01:29 81.74788 -107.99529 39635 ft 490 kts 74°
2026-05-05 01:30 81.76702 -107.53906 39619 ft 490 kts 74°
2026-05-05 01:30 81.78560 -107.08184 39622 ft 490 kts 75°
2026-05-05 01:31 81.80370 -106.62137 39623 ft 490 kts 75°
2026-05-05 01:31 81.82125 -106.15968 39637 ft 490 kts 76°
2026-05-05 01:32 81.83837 -105.69352 39635 ft 489 kts 76°
2026-05-05 01:32 81.85480 -105.22988 39619 ft 489 kts 77°
2026-05-05 01:33 81.87067 -104.76516 39631 ft 489 kts 77°
2026-05-05 01:33 81.88610 -104.29617 39633 ft 489 kts 78°
2026-05-05 01:34 81.90097 -103.82592 39637 ft 489 kts 78°
2026-05-05 01:34 81.91529 -103.35439 39633 ft 489 kts 78°
2026-05-05 01:35 81.92907 -102.88117 39630 ft 489 kts 79°
2026-05-05 01:35 81.94227 -102.40758 39630 ft 489 kts 79°
2026-05-05 01:36 81.95499 -101.93010 39632 ft 489 kts 80°
2026-05-05 01:36 81.96713 -101.45216 39632 ft 489 kts 81°
2026-05-05 01:37 81.97866 -100.97506 39630 ft 489 kts 81°
2026-05-05 01:37 81.98969 -100.49457 39629 ft 488 kts 82°
2026-05-05 01:38 82.00018 -100.01216 39630 ft 488 kts 82°
2026-05-05 01:38 82.01088 -99.53311 39628 ft 488 kts 81°
2026-05-05 01:39 82.02208 -99.04979 39629 ft 488 kts 81°
2026-05-05 01:39 82.03260 -98.56747 39629 ft 488 kts 82°
2026-05-05 01:40 82.04241 -98.08182 39628 ft 488 kts 83°
2026-05-05 01:40 82.05152 -97.59894 39629 ft 488 kts 83°
2026-05-05 01:41 82.06014 -97.11044 39626 ft 488 kts 84°
2026-05-05 01:41 82.06814 -96.62430 39625 ft 488 kts 84°
2026-05-05 01:42 82.07561 -96.13492 39630 ft 488 kts 84°
2026-05-05 01:42 82.08251 -95.64518 39629 ft 488 kts 85°
2026-05-05 01:43 82.08883 -95.15480 39627 ft 488 kts 85°
2026-05-05 01:43 82.09457 -94.66452 39626 ft 488 kts 86°
2026-05-05 01:44 82.09974 -94.17354 39624 ft 488 kts 86°
2026-05-05 01:44 82.10435 -93.67956 39624 ft 488 kts 87°
2026-05-05 01:45 82.10836 -93.18840 39624 ft 488 kts 87°
2026-05-05 01:45 82.11180 -92.69563 39616 ft 488 kts 88°
2026-05-05 01:46 82.11467 -92.20085 39617 ft 488 kts 88°
2026-05-05 01:46 82.11695 -91.70981 39617 ft 489 kts 89°
2026-05-05 01:47 82.11867 -91.21510 39619 ft 488 kts 89°
2026-05-05 01:47 82.11980 -90.71890 39620 ft 488 kts 90°
2026-05-05 01:48 82.12036 -90.22518 39620 ft 488 kts 90°
2026-05-05 01:48 82.12033 -89.72946 39616 ft 488 kts 91°
2026-05-05 01:49 82.11972 -89.23413 39617 ft 489 kts 91°
2026-05-05 01:49 82.11853 -88.73881 39617 ft 489 kts 92°
2026-05-05 01:50 82.11676 -88.24515 39621 ft 489 kts 92°
2026-05-05 01:50 82.11441 -87.75095 39615 ft 489 kts 93°
2026-05-05 01:51 82.11200 -87.33793 39618 ft 489 kts 93°
2026-05-05 01:51 82.10858 -86.84351 39614 ft 489 kts 94°
2026-05-05 01:52 82.10459 -86.35053 39610 ft 489 kts 94°
2026-05-05 01:52 82.10003 -85.85842 39610 ft 489 kts 95°
2026-05-05 01:53 82.09488 -85.36541 39607 ft 489 kts 95°
2026-05-05 01:53 82.08917 -84.87540 39607 ft 489 kts 96°
2026-05-05 01:54 82.08288 -84.38434 39596 ft 489 kts 96°
2026-05-05 01:54 82.07601 -83.89429 39595 ft 489 kts 97°
2026-05-05 01:55 82.06854 -83.40322 39602 ft 489 kts 97°
2026-05-05 01:55 82.06055 -82.91585 39603 ft 488 kts 97°
2026-05-05 01:56 82.05198 -82.42925 39599 ft 488 kts 98°
2026-05-05 01:56 82.04287 -81.94444 39590 ft 488 kts 98°
2026-05-05 01:57 82.03315 -81.45897 39586 ft 488 kts 99°
2026-05-05 01:57 82.02292 -80.97700 39572 ft 488 kts 99°
2026-05-05 01:58 82.01208 -80.49383 39573 ft 489 kts 100°
2026-05-05 01:58 82.00416 -80.01133 39566 ft 489 kts 90°
2026-05-05 01:59 82.01118 -79.52351 39564 ft 490 kts 82°
2026-05-05 01:59 82.02200 -79.03917 39565 ft 491 kts 82°
2026-05-05 02:00 82.03270 -78.55549 39552 ft 491 kts 82°
2026-05-05 02:00 82.04271 -78.06568 39554 ft 491 kts 83°
2026-05-05 02:01 82.05190 -77.57881 39547 ft 491 kts 83°
2026-05-05 02:01 82.06052 -77.08827 39548 ft 491 kts 84°
2026-05-05 02:02 82.06854 -76.59913 39551 ft 491 kts 84°
2026-05-05 02:02 82.07599 -76.10902 39548 ft 491 kts 85°
2026-05-05 02:03 82.08289 -75.61715 39549 ft 491 kts 85°
2026-05-05 02:03 82.08920 -75.12494 39551 ft 491 kts 85°
2026-05-05 02:04 82.09497 -74.62848 39550 ft 491 kts 86°
2026-05-05 02:04 82.10011 -74.13584 39567 ft 491 kts 86°
2026-05-05 02:05 82.10469 -73.64107 39562 ft 490 kts 87°
2026-05-05 02:05 82.10867 -73.14666 39576 ft 489 kts 88°
2026-05-05 02:06 82.11208 -72.65151 39578 ft 490 kts 88°
2026-05-05 02:06 82.11490 -72.15649 39579 ft 490 kts 89°
2026-05-05 02:07 82.11716 -71.65758 39599 ft 490 kts 89°
2026-05-05 02:07 82.11882 -71.16164 39600 ft 490 kts 89°
2026-05-05 02:08 82.11989 -70.66691 39592 ft 490 kts 90°
2026-05-05 02:08 82.12039 -70.16994 39588 ft 490 kts 90°
2026-05-05 02:09 82.12030 -69.67231 39611 ft 491 kts 91°
2026-05-05 02:09 82.11961 -69.17666 39611 ft 491 kts 91°
2026-05-05 02:10 82.11834 -68.67738 39610 ft 491 kts 92°
2026-05-05 02:10 82.11649 -68.18169 39616 ft 491 kts 92°
2026-05-05 02:11 82.11406 -67.68593 39615 ft 491 kts 93°
2026-05-05 02:11 82.11104 -67.19021 39604 ft 491 kts 93°
2026-05-05 02:12 82.10540 -66.44441 39605 ft 491 kts 94°
2026-05-05 02:13 82.10093 -65.94989 39613 ft 491 kts 94°
2026-05-05 02:13 82.09587 -65.45647 39612 ft 491 kts 95°
2026-05-05 02:14 82.09021 -64.96077 39617 ft 491 kts 95°
2026-05-05 02:14 82.08413 -64.47769 39616 ft 491 kts 96°
2026-05-05 02:15 82.07731 -63.98292 39617 ft 490 kts 96°
2026-05-05 02:15 82.06999 -63.49518 39624 ft 490 kts 97°
2026-05-05 02:16 82.06210 -63.00797 39627 ft 490 kts 97°
2026-05-05 02:16 82.05361 -62.51957 39623 ft 490 kts 97°
2026-05-05 02:17 82.04450 -62.02945 39622 ft 490 kts 98°
2026-05-05 02:17 82.03490 -61.54462 39693 ft 490 kts 98°
2026-05-05 02:18 82.02467 -61.05853 39626 ft 491 kts 99°
2026-05-05 02:18 82.01394 -60.57511 39626 ft 492 kts 99°
2026-05-05 02:19 82.00441 -60.08659 39624 ft 492 kts 92°
2026-05-05 02:19 82.00916 -59.60089 39623 ft 492 kts 82°
2026-05-05 02:20 82.01990 -59.11639 39623 ft 492 kts 81°
2026-05-05 02:20 82.03105 -58.62817 39623 ft 492 kts 81°
2026-05-05 02:21 82.04125 -58.14001 39621 ft 491 kts 82°
2026-05-05 02:21 82.05054 -57.65433 39615 ft 492 kts 83°
2026-05-05 02:22 82.05928 -57.16152 39621 ft 492 kts 83°
2026-05-05 02:22 82.06739 -56.67148 39621 ft 492 kts 84°
2026-05-05 02:23 82.07494 -56.18086 39617 ft 492 kts 84°
2026-05-05 02:23 82.08192 -55.68824 39616 ft 491 kts 84°
2026-05-05 02:24 82.08834 -55.19479 39621 ft 491 kts 85°
2026-05-05 02:24 82.09416 -54.70103 39621 ft 491 kts 85°
2026-05-05 02:25 82.09944 -54.20350 39620 ft 491 kts 86°
2026-05-05 02:25 82.10409 -53.70885 39627 ft 491 kts 86°
2026-05-05 02:26 82.10818 -53.21273 39621 ft 491 kts 87°
2026-05-05 02:26 82.11166 -52.71785 39621 ft 491 kts 87°
2026-05-05 02:27 82.11457 -52.22217 39623 ft 491 kts 88°
2026-05-05 02:27 82.11689 -51.72539 39620 ft 491 kts 88°
2026-05-05 02:28 82.11863 -51.22851 39625 ft 491 kts 89°
2026-05-05 02:28 82.11978 -50.73340 39621 ft 492 kts 89°
2026-05-05 02:29 82.12035 -50.23418 39625 ft 492 kts 89°
2026-05-05 02:29 82.12033 -49.73546 39629 ft 492 kts 90°
2026-05-05 02:30 82.11973 -49.23682 39628 ft 492 kts 90°
2026-05-05 02:30 82.11853 -48.73918 39631 ft 492 kts 91°
2026-05-05 02:31 82.11675 -48.24190 39631 ft 492 kts 91°
2026-05-05 02:31 82.11438 -47.74444 39629 ft 492 kts 92°
2026-05-05 02:32 82.11141 -47.24465 39632 ft 492 kts 92°
2026-05-05 02:32 82.10786 -46.74804 39637 ft 492 kts 93°
2026-05-05 02:33 82.10372 -46.25102 39633 ft 492 kts 93°
2026-05-05 02:33 82.09902 -45.75633 39637 ft 493 kts 94°
2026-05-05 02:34 82.09371 -45.26010 39642 ft 493 kts 94°
2026-05-05 02:34 82.08781 -44.76449 39640 ft 494 kts 95°
2026-05-05 02:35 82.08134 -44.27022 39639 ft 494 kts 95°
2026-05-05 02:35 82.07427 -43.77545 39640 ft 493 kts 96°
2026-05-05 02:36 82.06658 -43.27981 39642 ft 492 kts 96°
2026-05-05 02:36 82.05839 -42.78952 39642 ft 492 kts 96°
2026-05-05 02:37 82.04965 -42.30165 39642 ft 492 kts 97°
2026-05-05 02:37 82.04032 -41.81375 39655 ft 492 kts 97°
2026-05-05 02:38 82.03037 -41.32488 39656 ft 494 kts 98°
2026-05-05 02:38 82.01980 -40.83479 39657 ft 494 kts 98°
2026-05-05 02:39 82.00869 -40.34768 39660 ft 494 kts 98°
2026-05-05 02:39 81.99713 -39.86373 39653 ft 493 kts 98°
2026-05-05 02:40 81.98622 -39.37613 39652 ft 493 kts 98°
2026-05-05 02:40 81.97532 -38.89374 39658 ft 492 kts 98°
2026-05-05 02:41 81.96570 -38.49309 39650 ft 493 kts 99°
2026-05-05 02:41 81.95135 -37.93175 39651 ft 493 kts 100°
2026-05-05 02:42 81.94054 -37.53037 39642 ft 493 kts 100°
2026-05-05 02:42 81.92708 -37.05090 39643 ft 495 kts 101°
2026-05-05 02:43 81.91305 -36.57227 39640 ft 495 kts 101°
2026-05-05 02:43 81.89853 -36.09713 39636 ft 494 kts 102°
2026-05-05 02:44 81.88336 -35.62069 39639 ft 495 kts 102°
2026-05-05 02:44 81.86774 -35.14923 39642 ft 495 kts 102°
2026-05-05 02:45 81.85150 -34.67736 39634 ft 495 kts 103°
2026-05-05 02:45 81.83477 -34.20852 39638 ft 495 kts 103°
2026-05-05 02:46 81.81737 -33.73830 39631 ft 495 kts 104°
2026-05-05 02:46 81.79953 -33.27288 39620 ft 495 kts 104°
2026-05-05 02:47 81.78113 -32.80848 39617 ft 496 kts 104°
2026-05-05 02:47 81.76216 -32.34538 39617 ft 496 kts 105°
2026-05-05 02:48 81.74271 -31.88543 39625 ft 496 kts 105°
2026-05-05 02:48 81.72277 -31.42835 39626 ft 496 kts 106°
2026-05-05 02:49 81.70216 -30.97042 39627 ft 496 kts 106°
2026-05-05 02:49 81.68126 -30.51947 39628 ft 496 kts 107°
2026-05-05 02:50 81.65967 -30.06691 39634 ft 496 kts 107°
2026-05-05 02:50 81.63762 -29.61785 39628 ft 496 kts 108°
2026-05-05 02:51 81.61504 -29.17044 39631 ft 496 kts 108°
2026-05-05 02:51 81.59198 -28.72614 39631 ft 496 kts 108°
2026-05-05 02:52 81.56839 -28.28354 39628 ft 496 kts 109°
2026-05-05 02:52 81.54439 -27.84487 39632 ft 496 kts 109°
2026-05-05 02:53 81.51974 -27.40583 39632 ft 496 kts 110°
2026-05-05 02:53 81.49465 -26.97014 39631 ft 496 kts 110°
2026-05-05 02:54 81.46932 -26.54090 39630 ft 496 kts 111°
2026-05-05 02:54 81.44321 -26.10938 39628 ft 495 kts 111°
2026-05-05 02:55 81.41686 -25.68423 39626 ft 496 kts 111°
2026-05-05 02:55 81.38998 -25.26057 39627 ft 496 kts 112°
2026-05-05 02:56 81.36254 -24.83797 39630 ft 496 kts 112°
2026-05-05 02:56 81.33478 -24.42018 39627 ft 496 kts 113°
2026-05-05 02:57 81.30633 -24.00161 39629 ft 496 kts 113°
2026-05-05 02:57 81.27764 -23.58878 39629 ft 496 kts 114°
2026-05-05 02:58 81.24845 -23.17788 39641 ft 496 kts 114°
2026-05-05 02:58 81.21882 -22.76976 39645 ft 496 kts 114°
2026-05-05 02:59 81.18863 -22.36260 39647 ft 497 kts 115°
2026-05-05 02:59 81.15820 -21.96082 39648 ft 498 kts 115°
2026-05-05 03:00 81.12704 -21.55798 39632 ft 498 kts 115°
2026-05-05 03:00 81.09560 -21.15969 39648 ft 498 kts 116°
2026-05-05 03:01 81.06369 -20.76367 39665 ft 498 kts 116°
2026-05-05 03:01 81.03144 -20.37143 39664 ft 497 kts 117°
2026-05-05 03:02 80.99887 -19.98295 39648 ft 497 kts 117°
2026-05-05 03:02 80.96523 -19.59774 39669 ft 497 kts 118°
2026-05-05 03:03 80.93054 -19.21847 39655 ft 498 kts 118°
2026-05-05 03:03 80.89528 -18.83897 39652 ft 498 kts 119°
2026-05-05 03:04 80.86008 -18.46509 39633 ft 498 kts 119°
2026-05-05 03:04 80.82442 -18.09257 39628 ft 498 kts 119°
2026-05-05 03:05 80.78841 -17.72305 39631 ft 498 kts 120°
2026-05-05 03:05 80.75193 -17.35565 39610 ft 498 kts 120°
2026-05-05 03:06 80.71528 -16.99301 39593 ft 498 kts 120°
2026-05-05 03:06 80.67797 -16.63071 39595 ft 498 kts 120°
2026-05-05 03:07 80.64046 -16.27245 39584 ft 498 kts 120°
2026-05-05 03:07 80.60260 -15.91719 39581 ft 499 kts 120°
2026-05-05 03:08 80.56421 -15.56298 39579 ft 499 kts 122°
2026-05-05 03:08 80.52554 -15.21258 39575 ft 498 kts 122°
2026-05-05 03:09 80.48674 -14.86693 39575 ft 498 kts 122°
2026-05-05 03:09 80.44762 -14.52402 39576 ft 498 kts 123°
2026-05-05 03:10 80.40806 -14.18304 39571 ft 498 kts 123°
2026-05-05 03:10 80.36799 -13.84333 39573 ft 498 kts 123°
2026-05-05 03:11 80.32776 -13.50791 39560 ft 498 kts 123°
2026-05-05 03:11 80.28708 -13.17402 39557 ft 500 kts 123°
2026-05-05 03:12 80.24615 -12.84360 39556 ft 499 kts 123°
2026-05-05 03:12 80.20471 -12.51454 39549 ft 498 kts 124°
2026-05-05 03:13 80.16338 -12.19139 39536 ft 498 kts 124°
2026-05-05 03:13 80.12136 -11.86807 39540 ft 498 kts 125°
2026-05-05 03:14 80.07902 -11.54711 39535 ft 499 kts 125°
2026-05-05 03:14 80.03679 -11.23206 39518 ft 499 kts 125°
2026-05-05 03:15 79.99397 -10.91753 39519 ft 498 kts 126°
2026-05-05 03:15 79.95079 -10.60499 39509 ft 499 kts 127°
2026-05-05 03:16 79.90740 -10.29595 39496 ft 500 kts 126°
2026-05-05 03:16 79.86363 -9.98860 39501 ft 500 kts 127°
2026-05-05 03:17 79.81958 -9.68366 39504 ft 500 kts 127°
2026-05-05 03:17 79.77537 -9.38262 39488 ft 500 kts 128°
2026-05-05 03:18 79.73073 -9.08297 39470 ft 500 kts 127°
2026-05-05 03:18 79.68586 -8.78622 39470 ft 500 kts 127°
2026-05-05 03:19 79.61800 -8.34567 39473 ft 500 kts 129°
2026-05-05 03:19 79.57229 -8.05427 39452 ft 501 kts 128°
2026-05-05 03:20 79.52643 -7.76617 39453 ft 501 kts 129°
2026-05-05 03:20 79.48034 -7.48042 39444 ft 501 kts 129°
2026-05-05 03:21 79.43371 -7.19559 39431 ft 501 kts 128°
2026-05-05 03:21 79.38700 -6.91413 39433 ft 502 kts 129°
2026-05-05 03:22 79.34018 -6.63592 39432 ft 502 kts 130°
2026-05-05 03:22 79.29285 -6.35847 39415 ft 502 kts 130°
2026-05-05 03:23 79.24545 -6.08465 39413 ft 502 kts 131°
2026-05-05 03:23 79.19762 -5.81218 39407 ft 501 kts 130°
2026-05-05 03:24 79.14987 -5.54373 39393 ft 502 kts 131°
2026-05-05 03:24 79.10170 -5.27669 39392 ft 501 kts 130°
2026-05-05 03:25 79.05350 -5.01283 39389 ft 502 kts 131°
2026-05-05 03:25 79.00476 -4.74969 39394 ft 502 kts 132°
2026-05-05 03:26 78.95565 -4.48796 39376 ft 503 kts 132°
2026-05-05 03:26 78.90645 -4.22942 39368 ft 503 kts 133°
2026-05-05 03:27 78.85725 -3.97433 39368 ft 502 kts 133°
2026-05-05 03:27 78.80757 -3.72002 39355 ft 503 kts 133°
2026-05-05 03:28 78.75750 -3.46689 39352 ft 503 kts 133°
2026-05-05 03:28 78.70746 -3.21726 39352 ft 504 kts 132°
2026-05-05 03:29 78.65708 -2.96907 39333 ft 505 kts 134°
2026-05-05 03:29 78.60645 -2.72293 39328 ft 504 kts 134°
2026-05-05 03:30 78.55575 -2.47960 39330 ft 504 kts 134°
2026-05-05 03:30 78.50485 -2.23852 39314 ft 503 kts 134°
2026-05-05 03:31 78.45383 -1.99971 39315 ft 503 kts 135°
2026-05-05 03:31 78.41103 -1.80168 39313 ft 504 kts 134°
2026-05-05 03:32 78.35948 -1.56582 39303 ft 505 kts 135°
2026-05-05 03:32 78.30775 -1.33226 39293 ft 505 kts 135°
2026-05-05 03:33 78.25543 -1.09878 39292 ft 506 kts 134°
2026-05-05 03:33 78.20312 -0.86821 39272 ft 506 kts 135°
2026-05-05 03:34 78.15072 -0.64016 39275 ft 504 kts 136°
2026-05-05 03:34 78.09831 -0.41479 39260 ft 505 kts 136°
2026-05-05 03:35 78.04572 -0.19127 39260 ft 505 kts 137°
2026-05-05 03:35 77.99297 0.03020 39250 ft 503 kts 137°
2026-05-05 03:36 77.94137 0.25681 39237 ft 503 kts 134°
2026-05-05 03:36 77.89054 0.48645 39234 ft 505 kts 134°
2026-05-05 03:37 77.83913 0.71417 39216 ft 505 kts 134°
2026-05-05 03:37 77.78720 0.93962 39206 ft 506 kts 135°
2026-05-05 03:38 77.73515 1.16203 39203 ft 506 kts 135°
2026-05-05 03:38 77.68299 1.38230 39202 ft 505 kts 134°
2026-05-05 03:39 77.63067 1.60081 39181 ft 505 kts 136°
2026-05-05 03:39 77.57802 1.81831 39191 ft 504 kts 137°
2026-05-05 03:40 77.52555 2.03262 39184 ft 506 kts 136°
2026-05-05 03:40 77.47213 2.24828 39166 ft 507 kts 137°
2026-05-05 03:41 77.41924 2.45916 39163 ft 507 kts 136°
2026-05-05 03:41 77.36579 2.66993 39163 ft 509 kts 136°
2026-05-05 03:42 77.31196 2.87975 39152 ft 508 kts 136°
2026-05-05 03:42 77.25795 3.08778 39139 ft 507 kts 136°
2026-05-05 03:43 77.20412 3.29301 39152 ft 508 kts 138°
2026-05-05 03:43 77.15002 3.49695 39145 ft 505 kts 139°
2026-05-05 03:44 77.09602 3.69818 39144 ft 504 kts 139°
2026-05-05 03:44 77.04195 3.89749 39136 ft 504 kts 139°
2026-05-05 03:45 76.98767 4.09537 39136 ft 505 kts 139°
2026-05-05 03:45 76.93346 4.29085 39132 ft 505 kts 139°
2026-05-05 03:46 76.87890 4.48547 39132 ft 505 kts 139°
2026-05-05 03:46 76.82417 4.67860 39126 ft 505 kts 140°
2026-05-05 03:47 76.76902 4.87109 39129 ft 505 kts 140°
2026-05-05 03:47 76.71399 5.06114 39123 ft 505 kts 139°
2026-05-05 03:48 76.65880 5.24977 39117 ft 505 kts 140°
2026-05-05 03:48 76.60361 5.43626 39112 ft 504 kts 140°
2026-05-05 03:49 76.54831 5.62120 39111 ft 504 kts 140°
2026-05-05 03:49 76.49267 5.80539 39105 ft 505 kts 140°
2026-05-05 03:50 76.43692 5.98801 39104 ft 505 kts 141°
2026-05-05 03:50 76.38128 6.16833 39100 ft 505 kts 140°
2026-05-05 03:51 76.32488 6.34935 39097 ft 506 kts 140°
2026-05-05 03:51 76.26867 6.52779 39089 ft 506 kts 141°
2026-05-05 03:52 76.21275 6.70349 39086 ft 506 kts 141°
2026-05-05 03:52 76.15607 6.87976 39081 ft 504 kts 141°
2026-05-05 03:53 76.09970 7.05340 39075 ft 505 kts 141°
2026-05-05 03:53 76.04302 7.22611 39074 ft 505 kts 141°
2026-05-05 03:54 75.98646 7.39677 39074 ft 504 kts 142°
2026-05-05 03:54 75.92976 7.56612 39064 ft 504 kts 142°
2026-05-05 03:55 75.87287 7.73438 39066 ft 504 kts 141°
2026-05-05 03:55 75.81603 7.90083 39059 ft 504 kts 143°
2026-05-05 03:56 75.75892 8.06635 39051 ft 504 kts 142°
2026-05-05 03:56 75.70179 8.23046 39052 ft 504 kts 142°
2026-05-05 03:57 75.64432 8.39392 39046 ft 504 kts 142°
2026-05-05 03:57 75.58698 8.55534 39039 ft 504 kts 142°
2026-05-05 03:58 75.52941 8.71584 39038 ft 504 kts 142°
2026-05-05 03:58 75.47188 8.87469 39032 ft 504 kts 143°
2026-05-05 03:59 75.41397 9.03307 39018 ft 502 kts 142°
2026-05-05 03:59 75.35638 9.18919 39019 ft 503 kts 142°
2026-05-05 04:00 75.29865 9.34398 39021 ft 502 kts 144°
2026-05-05 04:00 75.24070 9.49803 39012 ft 502 kts 143°
2026-05-05 04:01 75.18267 9.65094 39002 ft 502 kts 144°
2026-05-05 04:01 75.12487 9.80169 38993 ft 502 kts 144°
2026-05-05 04:02 75.06668 9.95214 38985 ft 502 kts 144°
2026-05-05 04:02 75.00825 10.10176 38988 ft 502 kts 145°
2026-05-05 04:03 74.95008 10.24933 38977 ft 502 kts 145°
2026-05-05 04:03 74.89151 10.39666 38969 ft 502 kts 145°
2026-05-05 04:04 74.83306 10.54218 38969 ft 502 kts 144°
2026-05-05 04:04 74.77460 10.68643 38958 ft 502 kts 144°
2026-05-05 04:05 74.71568 10.83057 38953 ft 502 kts 144°
2026-05-05 04:05 74.65679 10.97325 38952 ft 502 kts 146°
2026-05-05 04:06 74.59788 11.11477 38950 ft 502 kts 146°
2026-05-05 04:06 74.53911 11.25474 38944 ft 502 kts 145°
2026-05-05 04:07 74.48013 11.39389 38933 ft 501 kts 146°
2026-05-05 04:07 74.42113 11.53188 38933 ft 501 kts 146°
2026-05-05 04:08 74.36199 11.66894 38924 ft 501 kts 147°
2026-05-05 04:08 74.30245 11.80576 38916 ft 501 kts 147°
2026-05-05 04:09 74.24348 11.94008 38914 ft 501 kts 147°
2026-05-05 04:09 74.18379 12.07492 38912 ft 502 kts 147°
2026-05-05 04:10 74.12430 12.20807 38895 ft 502 kts 146°
2026-05-05 04:10 74.06471 12.34023 38895 ft 502 kts 146°
2026-05-05 04:11 74.00517 12.47104 38889 ft 502 kts 147°
2026-05-05 04:11 73.94558 12.60108 38878 ft 501 kts 147°
2026-05-05 04:12 73.88559 12.73089 38880 ft 500 kts 146°
2026-05-05 04:12 73.82586 12.85900 38869 ft 500 kts 147°
2026-05-05 04:13 73.76620 12.98584 38870 ft 501 kts 147°
2026-05-05 04:13 73.70599 13.11280 38869 ft 501 kts 147°
2026-05-05 04:14 73.64637 13.23743 38856 ft 500 kts 147°
2026-05-05 04:14 73.58612 13.36229 38856 ft 499 kts 148°
2026-05-05 04:15 73.52614 13.48560 38856 ft 500 kts 148°
2026-05-05 04:15 73.46608 13.60811 38834 ft 499 kts 147°
2026-05-05 04:16 73.40601 13.72960 38834 ft 499 kts 147°
2026-05-05 04:16 73.34597 13.84999 38834 ft 499 kts 148°
2026-05-05 04:17 73.28554 13.97031 38815 ft 499 kts 148°
2026-05-05 04:17 73.22495 14.08983 38823 ft 499 kts 149°
2026-05-05 04:18 73.16460 14.20791 38808 ft 499 kts 149°
2026-05-05 04:18 73.10418 14.32523 38798 ft 499 kts 149°
2026-05-05 04:19 73.04349 14.44213 38796 ft 500 kts 149°
2026-05-05 04:19 72.98294 14.55785 38785 ft 499 kts 148°
2026-05-05 04:20 72.92235 14.67268 38778 ft 499 kts 148°
2026-05-05 04:20 72.86170 14.78674 38776 ft 499 kts 149°
2026-05-05 04:21 72.80099 14.90004 38765 ft 499 kts 149°
2026-05-05 04:21 72.74028 15.01237 38758 ft 499 kts 150°
2026-05-05 04:22 72.68932 15.10598 38757 ft 499 kts 150°
2026-05-05 04:22 72.62855 15.21685 38744 ft 499 kts 149°
2026-05-05 04:23 72.56721 15.32794 38733 ft 499 kts 149°
2026-05-05 04:23 72.50626 15.43740 38733 ft 499 kts 149°
2026-05-05 04:24 72.44523 15.54615 38725 ft 499 kts 149°
2026-05-05 04:25 72.35351 15.70807 38716 ft 499 kts 150°
2026-05-05 04:25 72.29217 15.81528 38709 ft 499 kts 151°
2026-05-05 04:26 72.23074 15.92196 38703 ft 499 kts 150°
2026-05-05 04:26 72.16935 16.02759 38696 ft 500 kts 151°
2026-05-05 04:27 72.10792 16.13262 38683 ft 500 kts 151°
2026-05-05 04:27 72.04591 16.23784 38683 ft 500 kts 151°
2026-05-05 04:28 71.98447 16.34124 38672 ft 499 kts 151°
2026-05-05 04:28 71.92286 16.44415 38671 ft 499 kts 151°
2026-05-05 04:29 71.86102 16.54666 38671 ft 500 kts 152°
2026-05-05 04:29 71.79924 16.64834 38657 ft 500 kts 152°
2026-05-05 04:30 71.73739 16.74941 38656 ft 499 kts 152°
2026-05-05 04:30 71.67560 16.84963 38656 ft 499 kts 152°
2026-05-05 04:31 71.61349 16.94963 38644 ft 499 kts 153°
2026-05-05 04:31 71.55190 17.04805 38646 ft 499 kts 152°
2026-05-05 04:32 71.48964 17.14682 38640 ft 499 kts 153°
2026-05-05 04:32 71.42755 17.24462 38635 ft 500 kts 153°
2026-05-05 04:33 71.36537 17.34184 38636 ft 500 kts 153°
2026-05-05 04:33 71.30327 17.43825 38619 ft 500 kts 153°
2026-05-05 04:34 71.24097 17.53425 38621 ft 500 kts 153°
2026-05-05 04:34 71.17860 17.62968 38620 ft 499 kts 154°
2026-05-05 04:35 71.11597 17.72482 38608 ft 500 kts 154°
2026-05-05 04:35 71.05389 17.81847 38610 ft 500 kts 154°
2026-05-05 04:36 70.99125 17.91229 38608 ft 501 kts 154°
2026-05-05 04:36 70.92870 18.00530 38597 ft 500 kts 154°
2026-05-05 04:37 70.86582 18.09816 38599 ft 499 kts 154°
2026-05-05 04:37 70.80349 18.18955 38589 ft 500 kts 154°
2026-05-05 04:38 70.74097 18.28057 38582 ft 499 kts 154°
2026-05-05 04:38 70.67813 18.37144 38586 ft 499 kts 155°
2026-05-05 04:39 70.61579 18.46097 38585 ft 499 kts 155°
2026-05-05 04:39 70.55444 18.55823 38779 ft 499 kts 146°
2026-05-05 04:39 70.52656 18.62133 38922 ft 499 kts 142°
2026-05-05 04:40 70.49982 18.68691 38982 ft 500 kts 141°
2026-05-05 04:40 70.47316 18.75428 39157 ft 499 kts 140°
2026-05-05 04:40 70.44668 18.82180 39247 ft 500 kts 140°
2026-05-05 04:41 70.39384 18.95573 39489 ft 499 kts 140°
2026-05-05 04:41 70.36720 19.02250 39594 ft 499 kts 141°
2026-05-05 04:41 70.34048 19.08899 39699 ft 499 kts 141°
2026-05-05 04:41 70.31385 19.15491 39803 ft 499 kts 141°
2026-05-05 04:42 70.28745 19.21995 39874 ft 500 kts 141°
2026-05-05 04:42 70.23373 19.35156 40032 ft 500 kts 141°
2026-05-05 04:43 70.18009 19.48214 40237 ft 500 kts 141°
2026-05-05 04:43 70.12639 19.61196 40362 ft 501 kts 141°
2026-05-05 04:44 70.07253 19.74129 40530 ft 501 kts 141°
2026-05-05 04:44 70.01848 19.87017 40553 ft 501 kts 141°
2026-05-05 04:45 69.96447 19.99806 40552 ft 501 kts 142°
2026-05-05 04:45 69.91008 20.12596 40551 ft 501 kts 142°
2026-05-05 04:46 69.85608 20.25211 40546 ft 501 kts 142°
2026-05-05 04:46 69.80145 20.37883 40549 ft 501 kts 142°
2026-05-05 04:47 69.74715 20.50394 40544 ft 501 kts 142°
2026-05-05 04:47 69.69251 20.62900 40552 ft 501 kts 142°
2026-05-05 04:48 69.63807 20.75275 40551 ft 501 kts 142°
2026-05-05 04:48 69.58307 20.87691 40539 ft 501 kts 142°
2026-05-05 04:49 69.52834 20.99965 40539 ft 501 kts 143°
2026-05-05 04:49 69.47352 21.12179 40539 ft 501 kts 143°
2026-05-05 04:50 69.41851 21.24352 40529 ft 501 kts 143°
2026-05-05 04:50 69.36332 21.36484 40532 ft 501 kts 143°
2026-05-05 04:51 69.30839 21.48478 40532 ft 501 kts 143°
2026-05-05 04:51 69.25312 21.60468 40512 ft 501 kts 143°
2026-05-05 04:52 69.19771 21.72410 40510 ft 501 kts 144°
2026-05-05 04:52 69.14220 21.84297 40506 ft 501 kts 144°
2026-05-05 04:53 69.08691 21.96052 40504 ft 501 kts 144°
2026-05-05 04:53 69.03132 22.07799 40492 ft 501 kts 144°
2026-05-05 04:54 68.97541 22.19537 40494 ft 501 kts 145°
2026-05-05 04:54 68.91989 22.31118 40492 ft 501 kts 145°
2026-05-05 04:55 68.86397 22.42710 40475 ft 501 kts 144°
2026-05-05 04:55 68.80790 22.54256 40477 ft 501 kts 145°
2026-05-05 04:56 68.75212 22.65668 40480 ft 501 kts 145°
2026-05-05 04:56 68.69599 22.77079 40483 ft 501 kts 145°
2026-05-05 04:57 68.63971 22.88443 40463 ft 501 kts 145°
2026-05-05 04:57 68.58376 22.99672 40449 ft 502 kts 145°
2026-05-05 04:58 68.52713 23.10969 40438 ft 502 kts 145°
2026-05-05 04:58 68.47090 23.22115 40426 ft 502 kts 146°
2026-05-05 04:59 68.41410 23.33301 40413 ft 502 kts 146°
2026-05-05 04:59 68.35777 23.44324 40474 ft 502 kts 146°
2026-05-05 05:00 68.30108 23.55349 40467 ft 502 kts 146°
2026-05-05 05:00 68.24426 23.66332 40453 ft 502 kts 146°
2026-05-05 05:01 68.18762 23.77211 40476 ft 502 kts 146°
2026-05-05 05:01 68.13059 23.88096 40466 ft 502 kts 146°
2026-05-05 05:02 68.07379 23.98872 40472 ft 502 kts 147°
2026-05-05 05:02 68.01656 24.09660 40447 ft 503 kts 147°
2026-05-05 05:03 67.95929 24.20392 40451 ft 502 kts 147°
2026-05-05 05:03 67.90222 24.31021 40458 ft 502 kts 147°
2026-05-05 05:04 67.84482 24.41642 40436 ft 503 kts 147°
2026-05-05 05:04 67.78724 24.52236 40424 ft 502 kts 147°
2026-05-05 05:05 67.73019 24.62668 40414 ft 502 kts 147°
2026-05-05 05:05 67.67233 24.73183 40415 ft 502 kts 147°
2026-05-05 05:06 67.61509 24.83525 40414 ft 503 kts 148°
2026-05-05 05:06 67.55589 24.93379 40421 ft 501 kts 152°
2026-05-05 05:07 67.49552 25.02410 40439 ft 501 kts 153°
2026-05-05 05:07 67.43498 25.11484 40433 ft 501 kts 152°
2026-05-05 05:08 67.37506 25.20588 40428 ft 501 kts 152°
2026-05-05 05:08 67.31405 25.29412 40437 ft 499 kts 159°
2026-05-05 05:09 67.24827 25.34144 40429 ft 491 kts 176°
2026-05-05 05:09 67.18013 25.35616 40403 ft 491 kts 179°
2026-05-05 05:10 67.11192 25.36611 40420 ft 490 kts 179°
2026-05-05 05:10 67.04417 25.37635 40418 ft 490 kts 179°
2026-05-05 05:11 66.97602 25.38744 40415 ft 490 kts 179°
2026-05-05 05:11 66.90774 25.39883 40412 ft 490 kts 179°
2026-05-05 05:12 66.84006 25.41008 40408 ft 490 kts 179°
2026-05-05 05:12 66.77197 25.42128 40389 ft 490 kts 179°
2026-05-05 05:13 66.70373 25.43238 40380 ft 490 kts 179°
2026-05-05 05:13 66.63599 25.44335 40373 ft 490 kts 179°
2026-05-05 05:14 66.57931 25.45249 40370 ft 490 kts 179°
2026-05-05 05:14 66.51095 25.46347 40366 ft 490 kts 179°
2026-05-05 05:15 66.43219 25.47596 40369 ft 489 kts 179°
2026-05-05 05:15 66.37561 25.48489 40385 ft 489 kts 179°
2026-05-05 05:16 66.30762 25.49564 40393 ft 489 kts 179°
2026-05-05 05:16 66.23995 25.50626 40404 ft 489 kts 179°
2026-05-05 05:17 66.17190 25.51686 40409 ft 489 kts 179°
2026-05-05 05:17 66.10388 25.52739 40410 ft 489 kts 179°
2026-05-05 05:18 66.03625 25.53527 40415 ft 487 kts 184°
2026-05-05 05:18 65.96853 25.52966 40415 ft 485 kts 186°
2026-05-05 05:19 65.90094 25.52219 40415 ft 486 kts 185°
2026-05-05 05:19 65.83375 25.51686 40415 ft 486 kts 185°
2026-05-05 05:20 65.76577 25.51271 40416 ft 486 kts 185°
2026-05-05 05:20 65.69814 25.50884 40415 ft 486 kts 185°
2026-05-05 05:21 65.63060 25.50493 40417 ft 486 kts 185°
2026-05-05 05:21 65.56329 25.50098 40417 ft 486 kts 185°
2026-05-05 05:22 65.49539 25.49700 40420 ft 486 kts 185°
2026-05-05 05:22 65.42807 25.49308 40420 ft 486 kts 185°
2026-05-05 05:23 65.36031 25.48916 40429 ft 486 kts 185°
2026-05-05 05:23 65.29273 25.48527 40430 ft 485 kts 185°
2026-05-05 05:24 65.22557 25.48139 40434 ft 485 kts 185°
2026-05-05 05:24 65.15793 25.47744 40437 ft 485 kts 185°
2026-05-05 05:25 65.09032 25.47347 40438 ft 485 kts 185°
2026-05-05 05:25 65.02317 25.46967 40432 ft 484 kts 185°
2026-05-05 05:26 64.95566 25.46590 40443 ft 483 kts 185°
2026-05-05 05:26 64.88876 25.46210 40442 ft 483 kts 185°
2026-05-05 05:27 64.82153 25.45831 40444 ft 483 kts 185°
2026-05-05 05:27 64.72076 25.45264 40449 ft 483 kts 185°
2026-05-05 05:28 64.65365 25.44888 40460 ft 482 kts 185°
2026-05-05 05:28 64.58692 25.44516 40462 ft 481 kts 185°
2026-05-05 05:29 64.52009 25.44144 40471 ft 481 kts 185°
2026-05-05 05:29 64.45314 25.43773 40477 ft 481 kts 185°
2026-05-05 05:30 64.38639 25.43419 40481 ft 481 kts 185°
2026-05-05 05:30 64.31952 25.43050 40486 ft 480 kts 185°
2026-05-05 05:31 64.25257 25.42681 40485 ft 480 kts 186°
2026-05-05 05:31 64.18599 25.42317 40489 ft 481 kts 186°
2026-05-05 05:32 64.11866 25.41956 40501 ft 481 kts 186°
2026-05-05 05:32 64.05197 25.41601 40503 ft 481 kts 186°
2026-05-05 05:33 63.98519 25.41246 40511 ft 482 kts 186°
2026-05-05 05:33 63.91797 25.40889 40511 ft 482 kts 186°
2026-05-05 05:34 63.85115 25.40537 40515 ft 482 kts 186°
2026-05-05 05:34 63.78399 25.40200 40517 ft 482 kts 186°
2026-05-05 05:35 63.71681 25.39863 40527 ft 482 kts 186°
2026-05-05 05:35 63.64978 25.39509 40524 ft 482 kts 186°
2026-05-05 05:36 63.58296 25.39146 40528 ft 483 kts 186°
2026-05-05 05:36 63.51596 25.38795 40525 ft 483 kts 186°
2026-05-05 05:37 63.44874 25.38452 40540 ft 482 kts 186°
2026-05-05 05:37 63.38147 25.38109 40541 ft 482 kts 186°
2026-05-05 05:38 63.31477 25.37758 40543 ft 481 kts 186°
2026-05-05 05:38 63.24762 25.37417 40551 ft 481 kts 186°
2026-05-05 05:39 63.18105 25.37083 40556 ft 480 kts 186°
2026-05-05 05:39 63.11411 25.36745 40556 ft 480 kts 186°
2026-05-05 05:40 63.04717 25.36407 40561 ft 480 kts 185°
2026-05-05 05:40 62.98068 25.36074 40560 ft 480 kts 186°
2026-05-05 05:41 62.91371 25.35741 40573 ft 480 kts 186°
2026-05-05 05:41 62.84734 25.35411 40572 ft 479 kts 186°
2026-05-05 05:42 62.83246 25.35337 40572 ft 479 kts 186°